BAW43C EGKK-KMCO

Flight info

Callsign BAW43C
Flight time 9h 13m
Altitude 36000
Route NOVMA L620 SAM N19 ADKIK DCT MOPAT DCT ERTER DCT LILNO DCT LIMRI/M082F380 DCT 53N020W 53N030W 53N040W 52N050W DCT TUDEP DCT CARAC/M081F400 M201 VIRST Y494 WHOOS/N0464F400 Y494 AYCHB Y493 JENKS DCT 30N080W DCT OMN BITHO7
Aircraft B772/H-SDE2E3FGHIJ5LORVWXY/LB1D1

Departure

Time 2026-05-04 20:22
Airport London Gatwick Airport (EGKK)

Arrival

Time 2026-05-05 05:35
Airport Orlando International Airport (KMCO)
Time Latitude Longitude Altitude Speed Heading
2026-05-04 19:46 51.15566 -0.17101 208 ft 0 kts 168°
2026-05-04 20:06 51.15582 -0.17106 219 ft 3 kts 168°
2026-05-04 20:07 51.15599 -0.17113 218 ft 1 kts 168°
2026-05-04 20:07 51.15617 -0.17116 216 ft 3 kts 194°
2026-05-04 20:07 51.15632 -0.17104 223 ft 3 kts 242°
2026-05-04 20:07 51.15638 -0.17077 215 ft 3 kts 258°
2026-05-04 20:08 51.15642 -0.17046 211 ft 2 kts 258°
2026-05-04 20:08 51.15642 -0.17044 211 ft 11 kts 258°
2026-05-04 20:11 51.15635 -0.17101 208 ft 8 kts 258°
2026-05-04 20:11 51.15621 -0.17200 216 ft 9 kts 257°
2026-05-04 20:12 51.15604 -0.17299 218 ft 9 kts 255°
2026-05-04 20:12 51.15587 -0.17399 217 ft 9 kts 250°
2026-05-04 20:12 51.15531 -0.17430 218 ft 9 kts 174°
2026-05-04 20:12 51.15466 -0.17410 212 ft 9 kts 167°
2026-05-04 20:13 51.15402 -0.17387 210 ft 9 kts 167°
2026-05-04 20:13 51.15338 -0.17370 214 ft 9 kts 185°
2026-05-04 20:13 51.15299 -0.17458 218 ft 14 kts 258°
2026-05-04 20:13 51.15281 -0.17593 208 ft 11 kts 257°
2026-05-04 20:14 51.15263 -0.17717 215 ft 11 kts 257°
2026-05-04 20:14 51.15246 -0.17840 211 ft 11 kts 258°
2026-05-04 20:14 51.15229 -0.17964 218 ft 11 kts 257°
2026-05-04 20:14 51.15212 -0.18088 212 ft 11 kts 258°
2026-05-04 20:15 51.15195 -0.18212 214 ft 11 kts 258°
2026-05-04 20:15 51.15184 -0.18337 217 ft 11 kts 261°
2026-05-04 20:15 51.15167 -0.18462 217 ft 11 kts 257°
2026-05-04 20:15 51.15150 -0.18586 208 ft 11 kts 257°
2026-05-04 20:16 51.15133 -0.18710 209 ft 11 kts 258°
2026-05-04 20:16 51.15116 -0.18834 216 ft 11 kts 258°
2026-05-04 20:16 51.15099 -0.18958 212 ft 11 kts 257°
2026-05-04 20:16 51.15082 -0.19082 220 ft 11 kts 257°
2026-05-04 20:17 51.15065 -0.19206 211 ft 11 kts 257°
2026-05-04 20:17 51.15004 -0.19259 216 ft 11 kts 177°
2026-05-04 20:17 51.14954 -0.19344 220 ft 13 kts 255°
2026-05-04 20:17 51.14933 -0.19501 216 ft 15 kts 258°
2026-05-04 20:18 51.14911 -0.19659 220 ft 15 kts 258°
2026-05-04 20:18 51.14889 -0.19818 215 ft 15 kts 257°
2026-05-04 20:18 51.14868 -0.19977 215 ft 15 kts 258°
2026-05-04 20:18 51.14846 -0.20134 207 ft 15 kts 257°
2026-05-04 20:19 51.14822 -0.20306 215 ft 22 kts 257°
2026-05-04 20:19 51.14786 -0.20564 216 ft 22 kts 258°
2026-05-04 20:19 51.14754 -0.20797 218 ft 22 kts 257°
2026-05-04 20:19 51.14721 -0.21030 215 ft 21 kts 258°
2026-05-04 20:20 51.14697 -0.21209 216 ft 12 kts 258°
2026-05-04 20:20 51.14664 -0.21326 217 ft 8 kts 211°
2026-05-04 20:20 51.14626 -0.21329 213 ft 2 kts 169°
2026-05-04 20:20 51.14625 -0.21329 215 ft 0 kts 169°
2026-05-04 20:21 51.14587 -0.21312 217 ft 14 kts 159°
2026-05-04 20:21 51.14537 -0.21040 216 ft 23 kts 77°
2026-05-04 20:22 51.14612 -0.20499 220 ft 84 kts 77°
2026-05-04 20:22 51.14783 -0.19250 212 ft 145 kts 77°
2026-05-04 20:22 51.15029 -0.17431 383 ft 180 kts 76°
2026-05-04 20:22 51.15302 -0.15465 1071 ft 185 kts 76°
2026-05-04 20:23 51.15590 -0.13441 1903 ft 187 kts 76°
2026-05-04 20:23 51.15892 -0.11433 2518 ft 191 kts 75°
2026-05-04 20:23 51.16224 -0.09363 2989 ft 198 kts 69°
2026-05-04 20:23 51.17060 -0.07526 3162 ft 217 kts 40°
2026-05-04 20:24 51.18355 -0.06164 3464 ft 228 kts 35°
2026-05-04 20:24 51.19656 -0.04617 3701 ft 241 kts 30°
2026-05-04 20:24 51.21311 -0.04028 3994 ft 256 kts 353°
2026-05-04 20:24 51.22950 -0.05183 4530 ft 265 kts 320°
2026-05-04 20:25 51.24073 -0.07510 5143 ft 270 kts 295°
2026-05-04 20:25 51.24500 -0.10423 5792 ft 273 kts 271°
2026-05-04 20:25 51.24206 -0.13427 6346 ft 276 kts 254°
2026-05-04 20:25 51.23613 -0.16346 6939 ft 278 kts 251°
2026-05-04 20:26 51.22978 -0.19266 7547 ft 279 kts 251°
2026-05-04 20:26 51.22361 -0.22164 8130 ft 280 kts 251°
2026-05-04 20:26 51.21748 -0.25164 8689 ft 282 kts 252°
2026-05-04 20:26 51.21150 -0.28163 9271 ft 284 kts 252°
2026-05-04 20:27 51.20555 -0.31175 9804 ft 286 kts 252°
2026-05-04 20:27 51.19957 -0.34234 10240 ft 293 kts 253°
2026-05-04 20:27 51.19473 -0.37435 10353 ft 310 kts 258°
2026-05-04 20:27 51.19053 -0.40906 10483 ft 327 kts 258°
2026-05-04 20:28 51.18611 -0.44521 10802 ft 338 kts 258°
2026-05-04 20:28 51.18140 -0.48239 11300 ft 347 kts 258°
2026-05-04 20:28 51.17637 -0.52024 11966 ft 350 kts 256°
2026-05-04 20:28 51.16882 -0.55757 12652 ft 356 kts 247°
2026-05-04 20:29 51.15895 -0.59393 13377 ft 360 kts 246°
2026-05-04 20:29 51.14887 -0.63089 14015 ft 366 kts 246°
2026-05-04 20:29 51.13870 -0.66839 14685 ft 370 kts 246°
2026-05-04 20:29 51.12851 -0.70612 15432 ft 372 kts 246°
2026-05-04 20:30 51.11832 -0.74396 16125 ft 375 kts 246°
2026-05-04 20:30 51.10813 -0.78183 16811 ft 377 kts 246°
2026-05-04 20:30 51.09778 -0.82032 17509 ft 380 kts 246°
2026-05-04 20:30 51.08741 -0.85882 18177 ft 383 kts 246°
2026-05-04 20:31 51.07687 -0.89790 18774 ft 386 kts 246°
2026-05-04 20:31 51.06624 -0.93721 19352 ft 388 kts 245°
2026-05-04 20:31 51.05549 -0.97687 19884 ft 392 kts 245°
2026-05-04 20:31 51.04465 -1.01683 20384 ft 395 kts 245°
2026-05-04 20:32 51.03545 -1.05067 20849 ft 398 kts 245°
2026-05-04 20:32 51.02446 -1.09104 21394 ft 400 kts 245°
2026-05-04 20:32 51.01348 -1.13137 21943 ft 402 kts 245°
2026-05-04 20:32 51.00235 -1.17218 22475 ft 405 kts 245°
2026-05-04 20:33 50.99107 -1.21345 22998 ft 407 kts 245°
2026-05-04 20:33 50.97976 -1.25482 23508 ft 410 kts 245°
2026-05-04 20:33 50.96831 -1.29653 23945 ft 413 kts 244°
2026-05-04 20:33 50.95744 -1.33881 24416 ft 415 kts 249°
2026-05-04 20:34 50.94940 -1.38300 24893 ft 418 kts 256°
2026-05-04 20:34 50.94379 -1.42834 25340 ft 421 kts 256°
2026-05-04 20:34 50.93826 -1.47359 25704 ft 424 kts 256°
2026-05-04 20:34 50.93255 -1.51961 26128 ft 427 kts 256°
2026-05-04 20:35 50.92673 -1.56589 26595 ft 428 kts 256°
2026-05-04 20:35 50.92083 -1.61211 27055 ft 429 kts 255°
2026-05-04 20:35 50.91485 -1.65860 27492 ft 431 kts 255°
2026-05-04 20:35 50.90880 -1.70530 27911 ft 433 kts 255°
2026-05-04 20:36 50.90273 -1.75205 28340 ft 436 kts 255°
2026-05-04 20:36 50.89658 -1.79924 28761 ft 438 kts 255°
2026-05-04 20:36 50.89037 -1.84666 29180 ft 440 kts 255°
2026-05-04 20:36 50.88420 -1.89376 29621 ft 442 kts 254°
2026-05-04 20:37 50.87783 -1.94218 29947 ft 446 kts 254°
2026-05-04 20:37 50.87147 -1.99035 30274 ft 448 kts 254°
2026-05-04 20:37 50.86514 -2.03822 30597 ft 451 kts 254°
2026-05-04 20:37 50.85869 -2.08695 30904 ft 453 kts 255°
2026-05-04 20:38 50.85221 -2.13583 31208 ft 455 kts 255°
2026-05-04 20:38 50.84569 -2.18483 31497 ft 458 kts 255°
2026-05-04 20:38 50.83908 -2.23439 31778 ft 460 kts 255°
2026-05-04 20:38 50.83242 -2.28416 32040 ft 463 kts 255°
2026-05-04 20:39 50.82571 -2.33409 32295 ft 465 kts 255°
2026-05-04 20:39 50.81895 -2.38436 32487 ft 470 kts 255°
2026-05-04 20:39 50.81210 -2.43503 32676 ft 473 kts 255°
2026-05-04 20:39 50.80555 -2.48614 32926 ft 475 kts 259°
2026-05-04 20:40 50.80315 -2.53837 33235 ft 478 kts 269°
2026-05-04 20:40 50.80429 -2.57321 33480 ft 479 kts 274°
2026-05-04 20:40 50.80951 -2.62519 33834 ft 480 kts 282°
2026-05-04 20:40 50.81841 -2.67615 34157 ft 480 kts 284°
2026-05-04 20:41 50.83064 -2.74325 34506 ft 480 kts 284°
2026-05-04 20:41 50.83688 -2.77759 34692 ft 479 kts 284°
2026-05-04 20:41 50.84589 -2.82770 34951 ft 479 kts 285°
2026-05-04 20:41 50.85502 -2.87928 35119 ft 481 kts 284°
2026-05-04 20:42 50.86384 -2.92975 35363 ft 481 kts 284°
2026-05-04 20:42 50.87280 -2.98147 35667 ft 480 kts 284°
2026-05-04 20:42 50.88142 -3.03165 35931 ft 480 kts 284°
2026-05-04 20:42 50.89020 -3.08297 35978 ft 484 kts 284°
2026-05-04 20:43 50.90777 -3.18613 36023 ft 485 kts 284°
2026-05-04 20:43 50.91547 -3.23153 35333 ft 469 kts 285°
2026-05-04 20:43 50.92279 -3.27475 35534 ft 452 kts 285°
2026-05-04 20:44 50.93073 -3.32173 36572 ft 447 kts 284°
2026-05-04 20:44 50.93885 -3.36995 36305 ft 460 kts 284°
2026-05-04 20:44 50.95557 -3.46964 36140 ft 475 kts 284°
2026-05-04 20:45 50.97267 -3.57219 36072 ft 485 kts 284°
2026-05-04 20:45 50.98989 -3.67603 36034 ft 487 kts 284°
2026-05-04 20:46 51.00704 -3.78006 36041 ft 486 kts 284°
2026-05-04 20:46 51.02406 -3.88396 36035 ft 485 kts 284°
2026-05-04 20:47 51.04089 -3.98739 36037 ft 483 kts 284°
2026-05-04 20:47 51.05758 -4.09052 36040 ft 481 kts 284°
2026-05-04 20:48 51.07411 -4.19336 36038 ft 479 kts 284°
2026-05-04 20:48 51.09048 -4.29583 36040 ft 478 kts 284°
2026-05-04 20:49 51.10668 -4.39782 36046 ft 478 kts 284°
2026-05-04 20:49 51.12289 -4.50052 36045 ft 479 kts 284°
2026-05-04 20:50 51.13908 -4.60375 36043 ft 481 kts 284°
2026-05-04 20:50 51.15523 -4.70736 36048 ft 483 kts 284°
2026-05-04 20:51 51.17123 -4.81076 36045 ft 484 kts 284°
2026-05-04 20:51 51.18729 -4.91510 36046 ft 485 kts 284°
2026-05-04 20:52 51.20327 -5.01961 36046 ft 484 kts 284°
2026-05-04 20:52 51.21911 -5.12397 36042 ft 484 kts 284°
2026-05-04 20:53 51.23485 -5.22830 36041 ft 483 kts 284°
2026-05-04 20:53 51.25045 -5.33238 36048 ft 482 kts 284°
2026-05-04 20:54 51.26586 -5.43587 36055 ft 481 kts 284°
2026-05-04 20:54 51.28125 -5.53993 36057 ft 481 kts 284°
2026-05-04 20:55 51.29655 -5.64403 36060 ft 482 kts 284°
2026-05-04 20:55 51.31178 -5.74843 36065 ft 482 kts 284°
2026-05-04 20:56 51.32695 -5.85305 36062 ft 483 kts 284°
2026-05-04 20:56 51.34203 -5.95777 36077 ft 484 kts 284°
2026-05-04 20:57 51.35706 -6.06293 36075 ft 485 kts 284°
2026-05-04 20:57 51.37194 -6.16769 36073 ft 486 kts 284°
2026-05-04 20:58 51.38684 -6.27337 36077 ft 486 kts 284°
2026-05-04 20:58 51.40163 -6.37902 36070 ft 486 kts 284°
2026-05-04 20:59 51.41629 -6.48453 36080 ft 485 kts 284°
2026-05-04 20:59 51.43086 -6.59001 36085 ft 485 kts 284°
2026-05-04 21:00 51.44525 -6.69497 36088 ft 484 kts 284°
2026-05-04 21:00 51.45962 -6.80063 36087 ft 485 kts 284°
2026-05-04 21:01 51.47389 -6.90625 36092 ft 485 kts 284°
2026-05-04 21:01 51.48811 -7.01217 36095 ft 485 kts 284°
2026-05-04 21:02 51.50373 -7.11754 36089 ft 483 kts 291°
2026-05-04 21:02 51.52667 -7.21803 36096 ft 482 kts 293°
2026-05-04 21:03 51.55030 -7.31895 36099 ft 483 kts 293°
2026-05-04 21:03 51.57364 -7.42021 36102 ft 483 kts 293°
2026-05-04 21:04 51.59675 -7.52195 36105 ft 483 kts 293°
2026-05-04 21:04 51.61947 -7.62284 36100 ft 483 kts 293°
2026-05-04 21:05 51.64230 -7.72465 36103 ft 482 kts 292°
2026-05-04 21:05 51.66499 -7.82629 36104 ft 481 kts 292°
2026-05-04 21:06 51.68752 -7.92766 36104 ft 480 kts 292°
2026-05-04 21:06 51.70995 -8.02907 36094 ft 479 kts 292°
2026-05-04 21:07 51.73222 -8.13026 36099 ft 479 kts 292°
2026-05-04 21:07 51.75426 -8.23089 36117 ft 478 kts 292°
2026-05-04 21:08 51.77629 -8.33196 36108 ft 477 kts 292°
2026-05-04 21:08 51.79818 -8.43291 36118 ft 476 kts 292°
2026-05-04 21:09 51.81999 -8.53394 36100 ft 475 kts 292°
2026-05-04 21:09 51.84163 -8.63472 36104 ft 474 kts 292°
2026-05-04 21:10 51.86315 -8.73544 36109 ft 473 kts 291°
2026-05-04 21:10 51.88455 -8.83605 36108 ft 473 kts 291°
2026-05-04 21:11 51.90585 -8.93675 36117 ft 472 kts 291°
2026-05-04 21:11 51.92690 -9.03675 36143 ft 471 kts 291°
2026-05-04 21:12 51.94798 -9.13732 36150 ft 471 kts 291°
2026-05-04 21:12 51.96896 -9.23802 36154 ft 471 kts 291°
2026-05-04 21:13 51.98984 -9.33871 36138 ft 471 kts 290°
2026-05-04 21:13 52.01059 -9.43932 36154 ft 470 kts 290°
2026-05-04 21:14 52.03127 -9.54002 36156 ft 469 kts 290°
2026-05-04 21:14 52.05183 -9.64064 36161 ft 469 kts 290°
2026-05-04 21:15 52.07227 -9.74126 36161 ft 469 kts 290°
2026-05-04 21:15 52.09251 -9.84135 36159 ft 469 kts 290°
2026-05-04 21:16 52.11277 -9.94203 36160 ft 467 kts 290°
2026-05-04 21:16 52.13286 -10.04245 36158 ft 466 kts 290°
2026-05-04 21:17 52.15282 -10.14274 36160 ft 465 kts 290°
2026-05-04 21:17 52.17264 -10.24279 36156 ft 463 kts 289°
2026-05-04 21:18 52.19222 -10.34215 36165 ft 462 kts 289°
2026-05-04 21:18 52.21177 -10.44190 36169 ft 461 kts 289°
2026-05-04 21:19 52.23121 -10.54157 36173 ft 461 kts 289°
2026-05-04 21:19 52.25060 -10.64151 36175 ft 461 kts 289°
2026-05-04 21:20 52.26991 -10.74155 36170 ft 462 kts 289°
2026-05-04 21:20 52.28915 -10.84179 36175 ft 462 kts 289°
2026-05-04 21:21 52.30829 -10.94202 36168 ft 462 kts 289°
2026-05-04 21:21 52.32730 -11.04208 36173 ft 460 kts 288°
2026-05-04 21:22 52.34615 -11.14185 36170 ft 459 kts 288°
2026-05-04 21:22 52.36475 -11.24081 36172 ft 457 kts 288°
2026-05-04 21:23 52.38336 -11.34037 36174 ft 456 kts 288°
2026-05-04 21:23 52.40181 -11.43959 36183 ft 455 kts 288°
2026-05-04 21:24 52.42020 -11.53901 36188 ft 454 kts 288°
2026-05-04 21:24 52.43830 -11.63740 36181 ft 454 kts 288°
2026-05-04 21:25 52.45644 -11.73647 36176 ft 453 kts 287°
2026-05-04 21:25 52.47445 -11.83547 36183 ft 452 kts 287°
2026-05-04 21:26 52.49234 -11.93430 36182 ft 451 kts 287°
2026-05-04 21:26 52.51015 -12.03322 36181 ft 451 kts 287°
2026-05-04 21:27 52.52776 -12.13157 36193 ft 451 kts 287°
2026-05-04 21:27 52.54539 -12.23055 36193 ft 451 kts 287°
2026-05-04 21:28 52.56293 -12.32955 36197 ft 451 kts 287°
2026-05-04 21:28 52.57744 -12.41189 36185 ft 451 kts 287°
2026-05-04 21:29 52.59485 -12.51118 36204 ft 451 kts 286°
2026-05-04 21:29 52.61219 -12.61060 36200 ft 451 kts 286°
2026-05-04 21:30 52.62941 -12.70993 36189 ft 451 kts 286°
2026-05-04 21:30 52.64929 -12.82530 36188 ft 450 kts 286°
2026-05-04 21:31 52.67192 -12.95754 36192 ft 450 kts 286°
2026-05-04 21:32 52.68879 -13.05679 36190 ft 450 kts 286°
2026-05-04 21:32 52.70549 -13.15556 36189 ft 450 kts 285°
2026-05-04 21:33 52.72219 -13.25497 36198 ft 449 kts 285°
2026-05-04 21:33 52.73882 -13.35445 36202 ft 449 kts 285°
2026-05-04 21:34 52.75535 -13.45395 36203 ft 449 kts 285°
2026-05-04 21:34 52.77181 -13.55362 36202 ft 449 kts 285°
2026-05-04 21:35 52.78818 -13.65331 36214 ft 449 kts 285°
2026-05-04 21:35 52.80436 -13.75240 36201 ft 450 kts 285°
2026-05-04 21:36 52.82056 -13.85224 36215 ft 450 kts 285°
2026-05-04 21:36 52.83668 -13.95216 36214 ft 450 kts 285°
2026-05-04 21:37 52.85272 -14.05218 36215 ft 450 kts 285°
2026-05-04 21:37 52.86872 -14.15249 36217 ft 450 kts 285°
2026-05-04 21:38 52.88461 -14.25280 36228 ft 450 kts 285°
2026-05-04 21:38 52.90030 -14.35251 36220 ft 450 kts 285°
2026-05-04 21:39 52.91605 -14.45300 36227 ft 450 kts 285°
2026-05-04 21:39 52.93168 -14.55342 36223 ft 450 kts 285°
2026-05-04 21:40 52.94710 -14.65319 36226 ft 449 kts 285°
2026-05-04 21:40 52.96263 -14.75424 36224 ft 449 kts 285°
2026-05-04 21:41 52.97789 -14.85410 36221 ft 449 kts 285°
2026-05-04 21:41 52.99317 -14.95471 36227 ft 449 kts 285°
2026-05-04 21:42 53.01140 -15.05365 36239 ft 448 kts 291°
2026-05-04 21:42 53.03350 -15.15056 36240 ft 448 kts 291°
2026-05-04 21:43 53.05551 -15.24754 36242 ft 449 kts 291°
2026-05-04 21:43 53.07729 -15.34478 36237 ft 449 kts 291°
2026-05-04 21:44 53.09893 -15.44228 36234 ft 449 kts 291°
2026-05-04 21:44 53.12046 -15.53986 36238 ft 449 kts 291°
2026-05-04 21:45 53.14190 -15.63747 36240 ft 449 kts 291°
2026-05-04 21:45 53.16328 -15.73521 36240 ft 449 kts 290°
2026-05-04 21:46 53.18450 -15.83274 36241 ft 449 kts 290°
2026-05-04 21:46 53.20575 -15.93083 36243 ft 449 kts 290°
2026-05-04 21:47 53.22691 -16.02901 36248 ft 449 kts 290°
2026-05-04 21:47 53.24797 -16.12715 36245 ft 449 kts 290°
2026-05-04 21:48 53.26884 -16.22488 36247 ft 449 kts 290°
2026-05-04 21:48 53.28971 -16.32313 36251 ft 449 kts 290°
2026-05-04 21:49 53.31052 -16.42151 36252 ft 448 kts 290°
2026-05-04 21:49 53.33124 -16.51998 36258 ft 448 kts 290°
2026-05-04 21:50 53.35183 -16.61833 36263 ft 448 kts 290°
2026-05-04 21:50 53.37242 -16.71710 36259 ft 448 kts 289°
2026-05-04 21:51 53.39285 -16.81567 36260 ft 448 kts 289°
2026-05-04 21:51 53.41313 -16.91395 36263 ft 448 kts 289°
2026-05-04 21:52 53.43343 -17.01280 36265 ft 448 kts 289°
2026-05-04 21:52 53.45365 -17.11179 36266 ft 449 kts 289°
2026-05-04 21:53 53.47382 -17.21102 36272 ft 449 kts 289°
2026-05-04 21:53 53.49389 -17.31024 36267 ft 449 kts 289°
2026-05-04 21:54 53.51389 -17.40964 36267 ft 449 kts 289°
2026-05-04 21:54 53.53364 -17.50831 36274 ft 448 kts 289°
2026-05-04 21:55 53.55344 -17.60767 36277 ft 448 kts 289°
2026-05-04 21:55 53.57314 -17.70712 36281 ft 448 kts 289°
2026-05-04 21:56 53.59274 -17.80652 36281 ft 447 kts 289°
2026-05-04 21:56 53.61228 -17.90612 36275 ft 447 kts 289°
2026-05-04 21:57 53.63169 -18.00560 36278 ft 447 kts 289°
2026-05-04 21:57 53.65099 -18.10502 36290 ft 446 kts 289°
2026-05-04 21:58 53.67024 -18.20467 36287 ft 446 kts 289°
2026-05-04 21:58 53.68924 -18.30356 36286 ft 446 kts 289°
2026-05-04 21:59 53.70830 -18.40330 36287 ft 446 kts 289°
2026-05-04 21:59 53.72722 -18.50278 36291 ft 445 kts 289°
2026-05-04 22:00 53.74609 -18.60255 36284 ft 445 kts 289°
2026-05-04 22:00 53.76482 -18.70211 36294 ft 444 kts 289°
2026-05-04 22:01 53.78345 -18.80164 36302 ft 444 kts 288°
2026-05-04 22:01 53.80200 -18.90132 36298 ft 444 kts 288°
2026-05-04 22:02 53.82035 -19.00040 36298 ft 444 kts 288°
2026-05-04 22:02 53.83871 -19.10011 36301 ft 443 kts 288°
2026-05-04 22:03 53.85700 -19.19994 36298 ft 443 kts 288°
2026-05-04 22:03 53.87518 -19.29970 36307 ft 443 kts 288°
2026-05-04 22:04 53.89327 -19.39955 36304 ft 443 kts 288°
2026-05-04 22:04 53.91128 -19.49950 36306 ft 443 kts 288°
2026-05-04 22:05 53.92925 -19.59974 36319 ft 444 kts 287°
2026-05-04 22:05 53.94712 -19.69999 36316 ft 444 kts 287°
2026-05-04 22:06 53.96482 -19.79989 36317 ft 444 kts 287°
2026-05-04 22:06 53.98256 -19.90038 36312 ft 444 kts 287°
2026-05-04 22:07 53.99863 -20.00166 36321 ft 444 kts 281°
2026-05-04 22:07 54.00493 -20.10606 36329 ft 445 kts 275°
2026-05-04 22:08 54.00877 -20.21123 36321 ft 445 kts 275°
2026-05-04 22:08 54.01271 -20.31635 36321 ft 446 kts 275°
2026-05-04 22:09 54.01672 -20.42176 36316 ft 446 kts 275°
2026-05-04 22:09 54.02066 -20.52636 36336 ft 446 kts 274°
2026-05-04 22:10 54.02454 -20.63174 36324 ft 446 kts 274°
2026-05-04 22:10 54.02832 -20.73715 36329 ft 446 kts 274°
2026-05-04 22:11 54.03202 -20.84265 36330 ft 446 kts 274°
2026-05-04 22:11 54.03561 -20.94803 36331 ft 446 kts 274°
2026-05-04 22:12 54.03909 -21.05272 36324 ft 446 kts 274°
2026-05-04 22:12 54.04250 -21.15816 36336 ft 445 kts 274°
2026-05-04 22:13 54.04582 -21.26345 36335 ft 446 kts 274°
2026-05-04 22:13 54.04904 -21.36874 36340 ft 446 kts 274°
2026-05-04 22:14 54.05218 -21.47420 36342 ft 446 kts 274°
2026-05-04 22:14 54.05522 -21.57970 36342 ft 446 kts 274°
2026-05-04 22:15 54.05817 -21.68512 36342 ft 446 kts 273°
2026-05-04 22:15 54.06102 -21.79058 36341 ft 446 kts 273°
2026-05-04 22:16 54.06379 -21.89624 36344 ft 446 kts 273°
2026-05-04 22:16 54.06645 -22.00102 36343 ft 446 kts 273°
2026-05-04 22:17 54.06904 -22.10685 36342 ft 447 kts 273°
2026-05-04 22:17 54.07153 -22.21269 36354 ft 448 kts 273°
2026-05-04 22:18 54.07356 -22.30148 36605 ft 452 kts 273°
2026-05-04 22:18 54.07512 -22.37241 36937 ft 452 kts 273°
2026-05-04 22:18 54.07628 -22.42588 37177 ft 452 kts 273°
2026-05-04 22:18 54.07741 -22.47933 37381 ft 453 kts 273°
2026-05-04 22:19 54.07816 -22.51561 37527 ft 453 kts 273°
2026-05-04 22:19 54.07924 -22.56867 37750 ft 454 kts 272°
2026-05-04 22:19 54.08031 -22.62240 37961 ft 454 kts 272°
2026-05-04 22:19 54.08137 -22.67634 38172 ft 455 kts 272°
2026-05-04 22:20 54.08239 -22.73012 38278 ft 456 kts 272°
2026-05-04 22:20 54.08439 -22.83863 38352 ft 458 kts 272°
2026-05-04 22:21 54.08628 -22.94703 38351 ft 455 kts 272°
2026-05-04 22:21 54.08806 -23.05455 38356 ft 452 kts 272°
2026-05-04 22:22 54.08973 -23.16063 38350 ft 450 kts 272°
2026-05-04 22:22 54.09131 -23.26767 38364 ft 449 kts 272°
2026-05-04 22:23 54.09279 -23.37351 38358 ft 449 kts 272°
2026-05-04 22:23 54.09418 -23.48007 38375 ft 451 kts 272°
2026-05-04 22:24 54.09548 -23.58719 38373 ft 453 kts 272°
2026-05-04 22:24 54.09670 -23.69465 38365 ft 455 kts 272°
2026-05-04 22:25 54.09782 -23.80267 38370 ft 456 kts 272°
2026-05-04 22:25 54.09884 -23.91093 38362 ft 457 kts 271°
2026-05-04 22:26 54.09977 -24.01919 38368 ft 457 kts 271°
2026-05-04 22:26 54.10060 -24.12755 38368 ft 457 kts 271°
2026-05-04 22:27 54.10134 -24.23574 38374 ft 457 kts 271°
2026-05-04 22:27 54.10197 -24.34327 38371 ft 456 kts 271°
2026-05-04 22:28 54.10251 -24.45142 38373 ft 456 kts 271°
2026-05-04 22:28 54.10296 -24.55924 38363 ft 455 kts 271°
2026-05-04 22:29 54.10330 -24.66706 38374 ft 454 kts 271°
2026-05-04 22:29 54.10355 -24.77476 38372 ft 454 kts 271°
2026-05-04 22:30 54.10371 -24.88247 38374 ft 454 kts 271°
2026-05-04 22:30 54.10376 -24.99022 38375 ft 454 kts 271°
2026-05-04 22:31 54.10372 -25.09781 38369 ft 454 kts 271°
2026-05-04 22:31 54.10359 -25.20491 38376 ft 454 kts 271°
2026-05-04 22:32 54.10336 -25.31278 38377 ft 455 kts 271°
2026-05-04 22:32 54.10303 -25.42061 38378 ft 455 kts 271°
2026-05-04 22:33 54.10261 -25.52864 38382 ft 455 kts 270°
2026-05-04 22:33 54.10209 -25.63662 38382 ft 456 kts 270°
2026-05-04 22:34 54.10147 -25.74464 38381 ft 456 kts 270°
2026-05-04 22:34 54.10076 -25.85214 38380 ft 456 kts 270°
2026-05-04 22:35 54.09995 -25.96023 38381 ft 456 kts 270°
2026-05-04 22:35 54.09904 -26.06837 38380 ft 456 kts 270°
2026-05-04 22:36 54.09803 -26.17653 38380 ft 456 kts 270°
2026-05-04 22:36 54.09693 -26.28483 38375 ft 456 kts 270°
2026-05-04 22:37 54.09573 -26.39277 38386 ft 456 kts 270°
2026-05-04 22:37 54.09444 -26.50020 38385 ft 456 kts 270°
2026-05-04 22:38 54.09304 -26.60827 38386 ft 456 kts 270°
2026-05-04 22:38 54.09156 -26.71632 38385 ft 456 kts 270°
2026-05-04 22:39 54.08997 -26.82434 38375 ft 456 kts 270°
2026-05-04 22:39 54.08829 -26.93249 38389 ft 456 kts 270°
2026-05-04 22:40 54.08652 -27.03994 38394 ft 457 kts 270°
2026-05-04 22:40 54.08464 -27.14805 38390 ft 457 kts 270°
2026-05-04 22:41 54.08266 -27.25629 38388 ft 457 kts 269°
2026-05-04 22:41 54.08059 -27.36443 38392 ft 457 kts 269°
2026-05-04 22:42 54.07841 -27.47278 38385 ft 457 kts 270°
2026-05-04 22:42 54.07614 -27.58121 38393 ft 458 kts 269°
2026-05-04 22:43 54.07379 -27.68895 38391 ft 458 kts 269°
2026-05-04 22:43 54.07132 -27.79738 38391 ft 459 kts 269°
2026-05-04 22:44 54.06875 -27.90610 38391 ft 459 kts 269°
2026-05-04 22:44 54.06608 -28.01481 38400 ft 459 kts 269°
2026-05-04 22:45 54.06331 -28.12353 38393 ft 459 kts 269°
2026-05-04 22:45 54.05897 -28.28656 38394 ft 459 kts 269°
2026-05-04 22:46 54.05598 -28.39439 38390 ft 459 kts 269°
2026-05-04 22:46 54.05286 -28.50317 38394 ft 459 kts 269°
2026-05-04 22:47 54.04966 -28.61168 38384 ft 459 kts 269°
2026-05-04 22:47 54.04635 -28.72019 38395 ft 458 kts 269°
2026-05-04 22:48 54.04296 -28.82853 38397 ft 458 kts 269°
2026-05-04 22:48 54.03948 -28.93633 38398 ft 458 kts 269°
2026-05-04 22:49 54.03589 -29.04456 38398 ft 458 kts 269°
2026-05-04 22:49 54.03221 -29.15286 38380 ft 458 kts 269°
2026-05-04 22:50 54.02843 -29.26096 38412 ft 458 kts 269°
2026-05-04 22:50 54.02455 -29.36902 38400 ft 458 kts 269°
2026-05-04 22:51 54.02058 -29.47709 38403 ft 458 kts 269°
2026-05-04 22:51 54.01653 -29.58458 38404 ft 458 kts 268°
2026-05-04 22:52 54.01236 -29.69279 38406 ft 458 kts 268°
2026-05-04 22:52 54.00809 -29.80111 38405 ft 458 kts 269°
2026-05-04 22:53 54.00375 -29.90925 38408 ft 458 kts 268°
2026-05-04 22:53 54.00042 -30.01670 38413 ft 456 kts 273°
2026-05-04 22:54 54.00448 -30.12414 38406 ft 455 kts 276°
2026-05-04 22:54 54.00915 -30.23147 38408 ft 455 kts 276°
2026-05-04 22:55 54.01355 -30.33899 38373 ft 455 kts 276°
2026-05-04 22:55 54.01771 -30.44653 38407 ft 455 kts 276°
2026-05-04 22:56 54.02171 -30.55344 38406 ft 455 kts 276°
2026-05-04 22:56 54.02563 -30.66090 38404 ft 455 kts 276°
2026-05-04 22:57 54.02946 -30.76855 38397 ft 456 kts 276°
2026-05-04 22:57 54.03319 -30.87621 38405 ft 456 kts 276°
2026-05-04 22:58 54.03684 -30.98396 38384 ft 456 kts 276°
2026-05-04 22:58 54.04038 -31.09171 38398 ft 456 kts 276°
2026-05-04 22:59 54.04384 -31.19946 38401 ft 456 kts 276°
2026-05-04 22:59 54.04718 -31.30668 38401 ft 457 kts 276°
2026-05-04 23:00 54.05044 -31.41455 38406 ft 457 kts 276°
2026-05-04 23:00 54.05361 -31.52274 38404 ft 457 kts 275°
2026-05-04 23:01 54.05669 -31.63100 38385 ft 458 kts 276°
2026-05-04 23:01 54.05966 -31.73914 38398 ft 457 kts 276°
2026-05-04 23:02 54.06254 -31.84728 38402 ft 457 kts 275°
2026-05-04 23:02 54.06531 -31.95476 38401 ft 457 kts 275°
2026-05-04 23:03 54.06800 -32.06301 38404 ft 457 kts 275°
2026-05-04 23:03 54.07059 -32.17134 38401 ft 457 kts 275°
2026-05-04 23:04 54.07308 -32.27951 38375 ft 457 kts 275°
2026-05-04 23:04 54.07546 -32.38745 38397 ft 456 kts 275°
2026-05-04 23:05 54.07774 -32.49465 38393 ft 455 kts 275°
2026-05-04 23:05 54.07993 -32.60239 38409 ft 455 kts 275°
2026-05-04 23:06 54.08203 -32.71008 38405 ft 454 kts 275°
2026-05-04 23:06 54.08369 -32.79937 38391 ft 454 kts 275°
2026-05-04 23:07 54.08561 -32.90707 38363 ft 454 kts 275°
2026-05-04 23:07 54.08742 -33.01451 38386 ft 453 kts 275°
2026-05-04 23:08 54.08913 -33.12095 38388 ft 452 kts 275°
2026-05-04 23:08 54.09075 -33.22801 38391 ft 452 kts 275°
2026-05-04 23:09 54.09228 -33.33509 38390 ft 452 kts 275°
2026-05-04 23:09 54.09371 -33.44215 38390 ft 452 kts 275°
2026-05-04 23:10 54.09504 -33.54864 38380 ft 452 kts 275°
2026-05-04 23:10 54.09628 -33.65608 38385 ft 451 kts 275°
2026-05-04 23:11 54.09741 -33.76221 38392 ft 450 kts 275°
2026-05-04 23:11 54.09846 -33.86891 38384 ft 450 kts 275°
2026-05-04 23:12 54.09942 -33.97554 38391 ft 450 kts 275°
2026-05-04 23:12 54.10028 -34.08208 38386 ft 449 kts 275°
2026-05-04 23:13 54.10104 -34.18873 38385 ft 449 kts 275°
2026-05-04 23:13 54.10171 -34.29451 38385 ft 449 kts 275°
2026-05-04 23:14 54.10228 -34.40098 38380 ft 449 kts 275°
2026-05-04 23:14 54.10277 -34.50745 38380 ft 449 kts 275°
2026-05-04 23:15 54.10315 -34.61399 38380 ft 449 kts 274°
2026-05-04 23:15 54.10345 -34.72054 38380 ft 449 kts 274°
2026-05-04 23:16 54.10365 -34.82710 38335 ft 450 kts 274°
2026-05-04 23:16 54.10375 -34.93271 38368 ft 448 kts 274°
2026-05-04 23:17 54.10375 -35.03865 38374 ft 446 kts 274°
2026-05-04 23:17 54.10367 -35.14412 38367 ft 444 kts 274°
2026-05-04 23:18 54.10350 -35.24921 38367 ft 442 kts 274°
2026-05-04 23:18 54.10324 -35.35380 38365 ft 441 kts 274°
2026-05-04 23:19 54.10289 -35.45766 38365 ft 441 kts 274°
2026-05-04 23:19 54.10245 -35.56188 38355 ft 439 kts 274°
2026-05-04 23:20 54.10193 -35.66589 38354 ft 438 kts 274°
2026-05-04 23:20 54.10131 -35.76985 38357 ft 438 kts 274°
2026-05-04 23:21 54.10061 -35.87364 38354 ft 438 kts 274°
2026-05-04 23:21 54.09982 -35.97705 38347 ft 439 kts 274°
2026-05-04 23:22 54.09892 -36.08175 38349 ft 439 kts 274°
2026-05-04 23:22 54.09796 -36.18498 38345 ft 438 kts 273°
2026-05-04 23:23 54.09689 -36.28892 38341 ft 438 kts 273°
2026-05-04 23:23 54.09573 -36.39277 38338 ft 438 kts 273°
2026-05-04 23:24 54.09449 -36.49662 38337 ft 438 kts 272°
2026-05-04 23:24 54.09315 -36.60035 38331 ft 438 kts 272°
2026-05-04 23:25 54.09173 -36.70420 38326 ft 438 kts 272°
2026-05-04 23:25 54.09023 -36.80713 38327 ft 433 kts 272°
2026-05-04 23:26 54.08864 -36.90865 38316 ft 426 kts 272°
2026-05-04 23:26 54.08701 -37.00944 38316 ft 426 kts 272°
2026-05-04 23:27 54.08531 -37.11022 38316 ft 426 kts 272°
2026-05-04 23:27 54.08350 -37.21129 38311 ft 427 kts 272°
2026-05-04 23:28 54.08161 -37.31248 38308 ft 428 kts 272°
2026-05-04 23:28 54.07963 -37.41313 38269 ft 428 kts 271°
2026-05-04 23:29 54.07756 -37.51445 38294 ft 428 kts 271°
2026-05-04 23:29 54.07540 -37.61573 38300 ft 428 kts 271°
2026-05-04 23:30 54.07316 -37.71724 38285 ft 428 kts 270°
2026-05-04 23:30 54.07084 -37.81796 38286 ft 428 kts 270°
2026-05-04 23:31 54.06843 -37.91921 38275 ft 428 kts 270°
2026-05-04 23:31 54.06594 -38.02047 38274 ft 428 kts 270°
2026-05-04 23:32 54.06337 -38.12172 38267 ft 428 kts 269°
2026-05-04 23:32 54.06069 -38.22295 38266 ft 428 kts 269°
2026-05-04 23:33 54.05796 -38.32347 38260 ft 428 kts 269°
2026-05-04 23:33 54.05512 -38.42465 38260 ft 428 kts 269°
2026-05-04 23:34 54.05220 -38.52586 38247 ft 428 kts 269°
2026-05-04 23:34 54.04919 -38.62721 38258 ft 428 kts 268°
2026-05-04 23:35 54.04611 -38.72841 38234 ft 428 kts 267°
2026-05-04 23:35 54.04293 -38.82946 38237 ft 428 kts 267°
2026-05-04 23:36 54.03967 -38.93039 38235 ft 427 kts 267°
2026-05-04 23:36 54.03634 -39.03123 38229 ft 426 kts 267°
2026-05-04 23:37 54.03293 -39.13190 38225 ft 426 kts 266°
2026-05-04 23:37 54.02943 -39.23253 38213 ft 426 kts 266°
2026-05-04 23:38 54.02587 -39.33243 38204 ft 426 kts 266°
2026-05-04 23:38 54.02221 -39.43308 38211 ft 426 kts 265°
2026-05-04 23:39 54.01846 -39.53375 38201 ft 427 kts 265°
2026-05-04 23:39 54.01461 -39.63463 38195 ft 428 kts 265°
2026-05-04 23:40 54.01067 -39.73596 38185 ft 429 kts 265°
2026-05-04 23:40 54.00663 -39.83741 38183 ft 430 kts 265°
2026-05-04 23:41 54.00255 -39.93840 38175 ft 431 kts 265°
2026-05-04 23:41 53.99811 -40.04010 38161 ft 431 kts 263°
2026-05-04 23:42 53.99228 -40.14167 38168 ft 432 kts 262°
2026-05-04 23:42 53.98610 -40.24329 38166 ft 432 kts 262°
2026-05-04 23:43 53.97997 -40.34498 38158 ft 432 kts 262°
2026-05-04 23:43 53.97388 -40.44595 38158 ft 432 kts 262°
2026-05-04 23:44 53.96771 -40.54764 38153 ft 433 kts 262°
2026-05-04 23:44 53.96144 -40.64937 38146 ft 433 kts 262°
2026-05-04 23:45 53.95508 -40.75106 38128 ft 433 kts 262°
2026-05-04 23:45 53.94865 -40.85272 38128 ft 433 kts 261°
2026-05-04 23:46 53.94212 -40.95437 38125 ft 433 kts 261°
2026-05-04 23:46 53.93551 -41.05585 38112 ft 433 kts 261°
2026-05-04 23:47 53.92881 -41.15758 38109 ft 433 kts 261°
2026-05-04 23:47 53.92204 -41.25904 38095 ft 433 kts 260°
2026-05-04 23:48 53.91519 -41.36010 38100 ft 434 kts 260°
2026-05-04 23:48 53.90819 -41.46214 38087 ft 435 kts 259°
2026-05-04 23:49 53.90109 -41.56443 38079 ft 437 kts 259°
2026-05-04 23:49 53.89388 -41.66695 38077 ft 438 kts 259°
2026-05-04 23:50 53.88658 -41.76957 38063 ft 439 kts 259°
2026-05-04 23:50 53.87917 -41.87250 38065 ft 440 kts 258°
2026-05-04 23:51 53.87171 -41.97481 38041 ft 440 kts 258°
2026-05-04 23:51 53.86410 -42.07786 38037 ft 440 kts 258°
2026-05-04 23:52 53.85642 -42.18068 38033 ft 440 kts 258°
2026-05-04 23:52 53.84865 -42.28353 38021 ft 440 kts 258°
2026-05-04 23:53 53.84081 -42.38620 38021 ft 439 kts 258°
2026-05-04 23:53 53.83289 -42.48868 38016 ft 439 kts 257°
2026-05-04 23:54 53.82623 -42.57385 37999 ft 439 kts 257°
2026-05-04 23:54 53.81812 -42.67639 37997 ft 439 kts 257°
2026-05-04 23:55 53.80993 -42.77896 37985 ft 439 kts 257°
2026-05-04 23:56 53.79749 -42.93269 37978 ft 440 kts 256°
2026-05-04 23:56 53.78913 -43.03462 37970 ft 440 kts 256°
2026-05-04 23:57 53.78060 -43.13746 37974 ft 441 kts 255°
2026-05-04 23:57 53.77196 -43.24044 37961 ft 443 kts 255°
2026-05-04 23:58 53.76318 -43.34399 37954 ft 446 kts 255°
2026-05-04 23:58 53.75428 -43.44791 37938 ft 448 kts 255°
2026-05-04 23:59 53.74526 -43.55225 37931 ft 449 kts 255°
2026-05-04 23:59 53.73613 -43.65668 37930 ft 450 kts 255°
2026-05-05 00:00 53.72687 -43.76145 37910 ft 452 kts 254°
2026-05-05 00:00 53.71749 -43.86663 37915 ft 454 kts 254°
2026-05-05 00:01 53.70804 -43.97142 37899 ft 455 kts 254°
2026-05-05 00:01 53.69842 -44.07709 37886 ft 456 kts 254°
2026-05-05 00:02 53.68870 -44.18278 37874 ft 456 kts 254°
2026-05-05 00:02 53.67887 -44.28868 37881 ft 457 kts 254°
2026-05-05 00:03 53.66890 -44.39479 37881 ft 459 kts 253°
2026-05-05 00:03 53.65879 -44.50137 37855 ft 461 kts 253°
2026-05-05 00:04 53.64856 -44.60832 37856 ft 462 kts 253°
2026-05-05 00:04 53.63820 -44.71558 37837 ft 463 kts 253°
2026-05-05 00:05 53.62774 -44.82276 37825 ft 464 kts 253°
2026-05-05 00:05 53.61721 -44.92967 37838 ft 465 kts 253°
2026-05-05 00:06 53.60651 -45.03724 37836 ft 466 kts 253°
2026-05-05 00:06 53.59573 -45.14453 37816 ft 468 kts 253°
2026-05-05 00:07 53.58476 -45.25270 37815 ft 470 kts 253°
2026-05-05 00:07 53.57367 -45.36114 37813 ft 471 kts 253°
2026-05-05 00:08 53.56245 -45.46975 37799 ft 471 kts 252°
2026-05-05 00:08 53.55108 -45.57879 37800 ft 474 kts 252°
2026-05-05 00:09 53.53959 -45.68801 37789 ft 475 kts 252°
2026-05-05 00:09 53.52797 -45.79751 37784 ft 476 kts 252°
2026-05-05 00:10 53.51623 -45.90707 37776 ft 477 kts 252°
2026-05-05 00:10 53.50438 -46.01674 37767 ft 477 kts 252°
2026-05-05 00:11 53.49249 -46.12571 37816 ft 477 kts 252°
2026-05-05 00:11 53.48037 -46.23576 37766 ft 479 kts 252°
2026-05-05 00:12 53.46813 -46.34597 37759 ft 480 kts 252°
2026-05-05 00:12 53.45576 -46.45637 37755 ft 481 kts 252°
2026-05-05 00:13 53.44330 -46.56663 37757 ft 481 kts 252°
2026-05-05 00:13 53.43076 -46.67664 37738 ft 480 kts 252°
2026-05-05 00:14 53.41821 -46.78586 37743 ft 480 kts 252°
2026-05-05 00:14 53.40548 -46.89554 37729 ft 479 kts 252°
2026-05-05 00:15 53.39268 -47.00504 37743 ft 478 kts 252°
2026-05-05 00:15 53.37977 -47.11444 37721 ft 478 kts 252°
2026-05-05 00:16 53.36674 -47.22391 37716 ft 478 kts 252°
2026-05-05 00:16 53.35365 -47.33308 37747 ft 479 kts 252°
2026-05-05 00:17 53.34040 -47.44259 37707 ft 480 kts 252°
2026-05-05 00:17 53.32706 -47.55202 37693 ft 480 kts 252°
2026-05-05 00:18 53.31358 -47.66173 37694 ft 481 kts 252°
2026-05-05 00:18 53.30009 -47.77062 37685 ft 481 kts 251°
2026-05-05 00:19 53.28638 -47.88038 37682 ft 481 kts 251°
2026-05-05 00:19 53.27256 -47.99015 37682 ft 484 kts 251°
2026-05-05 00:20 53.25868 -48.09945 37662 ft 484 kts 251°
2026-05-05 00:20 53.24454 -48.21009 37659 ft 485 kts 251°
2026-05-05 00:21 53.23045 -48.31945 37648 ft 485 kts 251°
2026-05-05 00:21 53.21617 -48.42941 37644 ft 485 kts 251°
2026-05-05 00:22 53.20176 -48.53946 37655 ft 485 kts 251°
2026-05-05 00:22 53.18723 -48.64956 37641 ft 486 kts 251°
2026-05-05 00:23 53.17262 -48.75948 37622 ft 486 kts 251°
2026-05-05 00:23 53.15797 -48.86885 37614 ft 486 kts 251°
2026-05-05 00:24 53.14314 -48.97875 37602 ft 486 kts 251°
2026-05-05 00:24 53.12820 -49.08862 37645 ft 487 kts 251°
2026-05-05 00:25 53.11311 -49.19873 37593 ft 488 kts 251°
2026-05-05 00:25 53.09792 -49.30881 37579 ft 488 kts 251°
2026-05-05 00:26 53.08262 -49.41891 37586 ft 488 kts 251°
2026-05-05 00:26 53.06732 -49.52817 37562 ft 488 kts 251°
2026-05-05 00:27 53.05182 -49.63810 37563 ft 488 kts 250°
2026-05-05 00:27 53.03620 -49.74802 37561 ft 489 kts 251°
2026-05-05 00:28 53.02045 -49.85816 37560 ft 490 kts 251°
2026-05-05 00:28 53.00468 -49.96760 37532 ft 490 kts 250°
2026-05-05 00:29 52.98336 -50.07385 37535 ft 483 kts 242°
2026-05-05 00:29 52.95804 -50.17703 37521 ft 483 kts 242°
2026-05-05 00:30 52.93260 -50.28040 37519 ft 484 kts 242°
2026-05-05 00:30 52.90737 -50.38384 37501 ft 484 kts 242°
2026-05-05 00:31 52.88218 -50.48723 37501 ft 483 kts 242°
2026-05-05 00:31 52.85696 -50.59039 37493 ft 483 kts 242°
2026-05-05 00:32 52.83180 -50.69271 37494 ft 482 kts 242°
2026-05-05 00:32 52.80636 -50.79565 37472 ft 483 kts 242°
2026-05-05 00:33 52.78086 -50.89833 37458 ft 483 kts 242°
2026-05-05 00:33 52.75527 -51.00096 37454 ft 483 kts 242°
2026-05-05 00:34 52.72959 -51.10343 37444 ft 483 kts 242°
2026-05-05 00:34 52.70401 -51.20504 37466 ft 483 kts 242°
2026-05-05 00:35 52.67812 -51.30740 37427 ft 483 kts 242°
2026-05-05 00:35 52.65222 -51.40936 37425 ft 483 kts 242°
2026-05-05 00:36 52.62623 -51.51118 37408 ft 482 kts 242°
2026-05-05 00:36 52.60017 -51.61285 37407 ft 482 kts 242°
2026-05-05 00:37 52.57398 -51.71451 37398 ft 482 kts 242°
2026-05-05 00:37 52.54778 -51.81580 37386 ft 482 kts 242°
2026-05-05 00:38 52.52143 -51.91721 37384 ft 482 kts 242°
2026-05-05 00:38 52.49502 -52.01836 37385 ft 482 kts 242°
2026-05-05 00:39 52.46872 -52.11867 37366 ft 481 kts 242°
2026-05-05 00:39 52.44217 -52.21951 37365 ft 481 kts 242°
2026-05-05 00:40 52.41550 -52.32032 37357 ft 481 kts 242°
2026-05-05 00:40 52.39332 -52.40381 37353 ft 481 kts 242°
2026-05-05 00:41 52.36656 -52.50417 37345 ft 481 kts 242°
2026-05-05 00:41 52.33968 -52.60452 37343 ft 481 kts 241°
2026-05-05 00:42 52.31269 -52.70482 37341 ft 481 kts 242°
2026-05-05 00:42 52.28566 -52.80488 37338 ft 481 kts 242°
2026-05-05 00:43 52.25877 -52.90401 37338 ft 480 kts 242°
2026-05-05 00:43 52.23164 -53.00355 37309 ft 480 kts 242°
2026-05-05 00:44 52.20443 -53.10297 37336 ft 480 kts 242°
2026-05-05 00:44 52.17709 -53.20244 37302 ft 480 kts 242°
2026-05-05 00:45 52.14969 -53.30166 37301 ft 480 kts 242°
2026-05-05 00:45 52.12225 -53.40066 37287 ft 479 kts 242°
2026-05-05 00:46 52.09494 -53.49875 37285 ft 479 kts 242°
2026-05-05 00:46 52.06734 -53.59745 37298 ft 479 kts 242°
2026-05-05 00:47 52.03973 -53.69580 37283 ft 478 kts 242°
2026-05-05 00:47 52.01199 -53.79421 37277 ft 478 kts 242°
2026-05-05 00:48 51.98415 -53.89252 37273 ft 478 kts 242°
2026-05-05 00:48 51.95652 -53.98973 37275 ft 478 kts 242°
2026-05-05 00:49 51.92859 -54.08751 37268 ft 479 kts 242°
2026-05-05 00:49 51.90055 -54.18538 37263 ft 479 kts 242°
2026-05-05 00:50 51.87241 -54.28317 37263 ft 479 kts 242°
2026-05-05 00:50 51.84416 -54.38092 37283 ft 479 kts 242°
2026-05-05 00:51 51.81586 -54.47850 37277 ft 479 kts 242°
2026-05-05 00:51 51.78565 -54.57332 37269 ft 476 kts 236°
2026-05-05 00:52 51.75095 -54.66426 37263 ft 475 kts 236°
2026-05-05 00:52 51.71603 -54.75498 37266 ft 475 kts 236°
2026-05-05 00:53 51.68125 -54.84572 37266 ft 475 kts 236°
2026-05-05 00:53 51.64657 -54.93636 37271 ft 475 kts 236°
2026-05-05 00:54 51.61207 -55.02632 37273 ft 475 kts 236°
2026-05-05 00:54 51.57728 -55.11670 37267 ft 474 kts 236°
2026-05-05 00:55 51.54243 -55.20692 37272 ft 474 kts 236°
2026-05-05 00:55 51.50767 -55.29653 37269 ft 475 kts 236°
2026-05-05 00:56 51.47266 -55.38652 37260 ft 475 kts 236°
2026-05-05 00:56 51.43754 -55.47644 37262 ft 475 kts 236°
2026-05-05 00:57 51.40235 -55.56624 37271 ft 475 kts 236°
2026-05-05 00:57 51.36715 -55.65578 37258 ft 476 kts 236°
2026-05-05 00:58 51.33181 -55.74533 37250 ft 476 kts 236°
2026-05-05 00:58 51.29641 -55.83472 37249 ft 475 kts 236°
2026-05-05 00:59 51.26102 -55.92380 37254 ft 475 kts 236°
2026-05-05 00:59 51.22574 -56.01228 37253 ft 474 kts 236°
2026-05-05 01:00 51.19026 -56.10095 37265 ft 474 kts 236°
2026-05-05 01:00 51.15474 -56.18945 37255 ft 473 kts 236°
2026-05-05 01:01 51.11922 -56.27761 37248 ft 473 kts 236°
2026-05-05 01:01 51.08369 -56.36553 37242 ft 472 kts 236°
2026-05-05 01:02 51.04831 -56.45275 37246 ft 472 kts 236°
2026-05-05 01:02 51.01266 -56.54038 37252 ft 472 kts 236°
2026-05-05 01:03 50.97696 -56.62781 37247 ft 471 kts 236°
2026-05-05 01:03 50.94121 -56.71506 37250 ft 471 kts 236°
2026-05-05 01:04 50.90559 -56.80171 37242 ft 472 kts 235°
2026-05-05 01:04 50.85185 -56.93191 37245 ft 470 kts 235°
2026-05-05 01:05 50.81604 -57.01830 37251 ft 468 kts 236°
2026-05-05 01:05 50.78036 -57.10411 37246 ft 467 kts 236°
2026-05-05 01:06 50.74463 -57.18974 37252 ft 466 kts 236°
2026-05-05 01:06 50.70896 -57.27495 37264 ft 465 kts 235°
2026-05-05 01:07 50.67319 -57.36013 37265 ft 465 kts 235°
2026-05-05 01:07 50.63756 -57.44468 37276 ft 466 kts 235°
2026-05-05 01:08 50.60160 -57.52975 37279 ft 467 kts 235°
2026-05-05 01:08 50.56551 -57.61486 37286 ft 467 kts 235°
2026-05-05 01:09 50.52968 -57.69908 37292 ft 465 kts 235°
2026-05-05 01:09 50.49365 -57.78350 37290 ft 464 kts 235°
2026-05-05 01:10 50.45761 -57.86767 37304 ft 464 kts 235°
2026-05-05 01:10 50.42159 -57.95150 37305 ft 463 kts 235°
2026-05-05 01:11 50.38548 -58.03531 37317 ft 463 kts 235°
2026-05-05 01:11 50.34935 -58.11889 37314 ft 463 kts 235°
2026-05-05 01:12 50.31315 -58.20234 37316 ft 463 kts 235°
2026-05-05 01:12 50.27709 -58.28522 37344 ft 464 kts 234°
2026-05-05 01:13 50.24078 -58.36841 37345 ft 463 kts 234°
2026-05-05 01:13 50.20450 -58.45130 37349 ft 461 kts 234°
2026-05-05 01:14 50.16827 -58.53380 37355 ft 460 kts 234°
2026-05-05 01:14 50.13205 -58.61600 37360 ft 459 kts 234°
2026-05-05 01:15 50.09606 -58.69743 37353 ft 458 kts 234°
2026-05-05 01:15 50.05983 -58.77915 37365 ft 458 kts 234°
2026-05-05 01:16 50.02360 -58.86064 37373 ft 458 kts 234°
2026-05-05 01:16 49.98720 -58.94223 37369 ft 459 kts 234°
2026-05-05 01:17 49.95061 -59.02401 37377 ft 461 kts 234°
2026-05-05 01:17 49.91388 -59.10584 37383 ft 462 kts 234°
2026-05-05 01:18 49.87739 -59.18690 37380 ft 459 kts 234°
2026-05-05 01:18 49.84090 -59.26771 37387 ft 456 kts 234°
2026-05-05 01:19 49.80433 -59.34844 37389 ft 458 kts 234°
2026-05-05 01:19 49.76751 -59.42947 37405 ft 460 kts 234°
2026-05-05 01:20 49.73059 -59.51049 37398 ft 459 kts 234°
2026-05-05 01:20 49.69390 -59.59076 37402 ft 454 kts 234°
2026-05-05 01:21 49.65765 -59.66983 37411 ft 454 kts 234°
2026-05-05 01:21 49.62095 -59.74962 37420 ft 457 kts 234°
2026-05-05 01:22 49.58404 -59.82966 37416 ft 459 kts 234°
2026-05-05 01:22 49.54691 -59.90990 37414 ft 460 kts 234°
2026-05-05 01:23 49.50976 -59.98996 37421 ft 459 kts 234°
2026-05-05 01:23 49.47263 -60.06975 37433 ft 458 kts 234°
2026-05-05 01:24 49.43539 -60.14952 37442 ft 458 kts 234°
2026-05-05 01:24 49.39839 -60.22854 37447 ft 459 kts 234°
2026-05-05 01:25 49.36096 -60.30824 37451 ft 461 kts 234°
2026-05-05 01:25 49.32339 -60.38801 37452 ft 461 kts 234°
2026-05-05 01:26 49.28597 -60.46722 37448 ft 461 kts 234°
2026-05-05 01:26 49.24841 -60.54649 37457 ft 460 kts 234°
2026-05-05 01:27 49.21081 -60.62560 37455 ft 459 kts 234°
2026-05-05 01:27 49.17328 -60.70434 37467 ft 458 kts 234°
2026-05-05 01:28 49.14204 -60.76971 37475 ft 457 kts 234°
2026-05-05 01:28 49.10450 -60.84805 37478 ft 457 kts 234°
2026-05-05 01:29 49.06690 -60.92629 37498 ft 456 kts 234°
2026-05-05 01:29 49.02948 -61.00392 37496 ft 457 kts 234°
2026-05-05 01:30 48.99174 -61.08199 37514 ft 457 kts 234°
2026-05-05 01:30 48.95396 -61.15993 37519 ft 456 kts 234°
2026-05-05 01:31 48.91648 -61.23702 37524 ft 457 kts 234°
2026-05-05 01:31 48.87860 -61.31469 37532 ft 458 kts 234°
2026-05-05 01:32 48.84059 -61.39242 37536 ft 459 kts 234°
2026-05-05 01:32 48.80240 -61.47029 37543 ft 459 kts 234°
2026-05-05 01:33 48.76441 -61.54752 37548 ft 459 kts 234°
2026-05-05 01:33 48.72614 -61.62510 37558 ft 458 kts 234°
2026-05-05 01:34 48.68793 -61.70235 37561 ft 457 kts 234°
2026-05-05 01:34 48.64974 -61.77932 37576 ft 457 kts 234°
2026-05-05 01:35 48.61149 -61.85619 37568 ft 457 kts 234°
2026-05-05 01:35 48.57319 -61.93296 37572 ft 458 kts 234°
2026-05-05 01:36 48.53474 -62.00980 37570 ft 459 kts 233°
2026-05-05 01:36 48.49619 -62.08663 37577 ft 460 kts 233°
2026-05-05 01:37 48.45776 -62.16298 37578 ft 460 kts 233°
2026-05-05 01:37 48.41877 -62.24024 37610 ft 461 kts 233°
2026-05-05 01:38 48.38016 -62.31654 37588 ft 461 kts 233°
2026-05-05 01:38 48.34121 -62.39327 37610 ft 461 kts 233°
2026-05-05 01:39 48.30219 -62.46992 37618 ft 461 kts 233°
2026-05-05 01:39 48.26313 -62.54646 37619 ft 461 kts 233°
2026-05-05 01:40 48.22401 -62.62289 37609 ft 461 kts 233°
2026-05-05 01:40 48.18487 -62.69912 37624 ft 461 kts 233°
2026-05-05 01:41 48.14564 -62.77533 37812 ft 462 kts 233°
2026-05-05 01:41 48.12598 -62.81344 38022 ft 464 kts 233°
2026-05-05 01:41 48.10645 -62.85127 38250 ft 464 kts 233°
2026-05-05 01:42 48.08673 -62.88939 38467 ft 464 kts 233°
2026-05-05 01:42 48.06695 -62.92756 38684 ft 463 kts 233°
2026-05-05 01:42 48.04719 -62.96566 38846 ft 464 kts 233°
2026-05-05 01:42 48.02742 -63.00371 39069 ft 463 kts 233°
2026-05-05 01:43 48.00769 -63.04162 39277 ft 462 kts 233°
2026-05-05 01:43 47.98794 -63.07955 39467 ft 462 kts 233°
2026-05-05 01:43 47.94849 -63.15513 39585 ft 465 kts 233°
2026-05-05 01:44 47.90860 -63.23131 39632 ft 465 kts 233°
2026-05-05 01:44 47.86869 -63.30733 39644 ft 464 kts 233°
2026-05-05 01:45 47.82888 -63.38296 39644 ft 463 kts 233°
2026-05-05 01:45 47.78931 -63.45792 39649 ft 463 kts 232°
2026-05-05 01:46 47.74949 -63.53315 39653 ft 462 kts 232°
2026-05-05 01:46 47.70960 -63.60828 39652 ft 462 kts 232°
2026-05-05 01:47 47.66971 -63.68323 39661 ft 463 kts 232°
2026-05-05 01:47 47.62971 -63.75818 39660 ft 464 kts 232°
2026-05-05 01:48 47.58985 -63.83265 39664 ft 464 kts 232°
2026-05-05 01:48 47.54958 -63.90767 39663 ft 465 kts 232°
2026-05-05 01:49 47.50931 -63.98252 39669 ft 465 kts 232°
2026-05-05 01:49 47.46885 -64.05748 39671 ft 465 kts 232°
2026-05-05 01:50 47.42842 -64.13220 39671 ft 466 kts 232°
2026-05-05 01:50 47.38812 -64.20646 39677 ft 466 kts 232°
2026-05-05 01:51 47.34755 -64.28103 39696 ft 466 kts 232°
2026-05-05 01:51 47.30693 -64.35549 39699 ft 466 kts 232°
2026-05-05 01:52 47.26620 -64.42994 39707 ft 466 kts 232°
2026-05-05 01:52 47.22548 -64.50418 39712 ft 465 kts 232°
2026-05-05 01:53 47.18504 -64.57769 39729 ft 465 kts 232°
2026-05-05 01:53 47.14434 -64.65149 39713 ft 464 kts 232°
2026-05-05 01:54 47.10366 -64.72504 39707 ft 464 kts 232°
2026-05-05 01:54 47.06291 -64.79854 39723 ft 463 kts 232°
2026-05-05 01:55 47.02244 -64.87133 39730 ft 463 kts 232°
2026-05-05 01:55 46.98179 -64.94426 39723 ft 462 kts 232°
2026-05-05 01:56 46.94104 -65.01715 39714 ft 462 kts 232°
2026-05-05 01:56 46.90029 -65.08988 39727 ft 461 kts 232°
2026-05-05 01:57 46.85952 -65.16243 39727 ft 461 kts 232°
2026-05-05 01:57 46.81896 -65.23442 39739 ft 461 kts 232°
2026-05-05 01:58 46.77807 -65.30680 39735 ft 462 kts 232°
2026-05-05 01:58 46.73718 -65.37900 39742 ft 462 kts 232°
2026-05-05 01:59 46.69621 -65.45115 39748 ft 462 kts 232°
2026-05-05 01:59 46.65516 -65.52326 39755 ft 462 kts 232°
2026-05-05 02:00 46.61411 -65.59517 39742 ft 462 kts 232°
2026-05-05 02:00 46.57291 -65.66714 39756 ft 462 kts 232°
2026-05-05 02:01 46.53173 -65.73892 39768 ft 462 kts 232°
2026-05-05 02:01 46.49080 -65.81006 39769 ft 462 kts 232°
2026-05-05 02:02 46.44956 -65.88155 39769 ft 462 kts 232°
2026-05-05 02:02 46.40832 -65.95287 39774 ft 461 kts 232°
2026-05-05 02:03 46.36700 -66.02412 39773 ft 461 kts 232°
2026-05-05 02:03 46.32567 -66.09523 39781 ft 461 kts 232°
2026-05-05 02:04 46.28431 -66.16619 39779 ft 461 kts 232°
2026-05-05 02:04 46.24284 -66.23716 39788 ft 462 kts 232°
2026-05-05 02:05 46.20163 -66.30752 39792 ft 462 kts 231°
2026-05-05 02:05 46.16007 -66.37829 39796 ft 462 kts 231°
2026-05-05 02:06 46.11843 -66.44900 39806 ft 462 kts 231°
2026-05-05 02:06 46.07680 -66.51952 39804 ft 461 kts 231°
2026-05-05 02:07 46.03525 -66.58973 39797 ft 460 kts 231°
2026-05-05 02:07 45.99370 -66.65977 39789 ft 460 kts 232°
2026-05-05 02:08 45.95226 -66.72942 39802 ft 458 kts 232°
2026-05-05 02:08 45.91086 -66.79884 39803 ft 456 kts 232°
2026-05-05 02:09 45.86954 -66.86796 39805 ft 455 kts 231°
2026-05-05 02:09 45.82855 -66.93636 39794 ft 454 kts 232°
2026-05-05 02:10 45.78733 -67.00498 39806 ft 453 kts 232°
2026-05-05 02:10 45.74608 -67.07348 39809 ft 453 kts 232°
2026-05-05 02:11 45.70485 -67.14177 39817 ft 454 kts 231°
2026-05-05 02:11 45.66355 -67.21002 39808 ft 454 kts 232°
2026-05-05 02:12 45.60149 -67.31226 39814 ft 456 kts 231°
2026-05-05 02:13 45.55976 -67.38078 39814 ft 457 kts 231°
2026-05-05 02:13 45.51798 -67.44922 39811 ft 457 kts 231°
2026-05-05 02:14 45.47613 -67.51760 39820 ft 457 kts 231°
2026-05-05 02:14 45.43426 -67.58587 39829 ft 458 kts 231°
2026-05-05 02:15 45.39228 -67.65415 39829 ft 458 kts 231°
2026-05-05 02:15 45.35056 -67.72187 39820 ft 457 kts 231°
2026-05-05 02:16 45.31555 -67.77808 39824 ft 456 kts 231°
2026-05-05 02:16 45.27300 -67.84505 39832 ft 456 kts 231°
2026-05-05 02:17 45.22353 -67.92261 39836 ft 455 kts 231°
2026-05-05 02:17 45.18790 -67.97847 39829 ft 454 kts 231°
2026-05-05 02:18 45.14579 -68.04444 39836 ft 454 kts 231°
2026-05-05 02:18 45.10336 -68.11078 39835 ft 453 kts 231°
2026-05-05 02:19 45.06102 -68.17682 39852 ft 453 kts 231°
2026-05-05 02:19 45.01861 -68.24280 39848 ft 453 kts 231°
2026-05-05 02:20 44.97622 -68.30860 39832 ft 453 kts 231°
2026-05-05 02:20 44.93372 -68.37441 39846 ft 453 kts 230°
2026-05-05 02:21 44.89152 -68.43961 39836 ft 453 kts 230°
2026-05-05 02:21 44.84893 -68.50524 39838 ft 453 kts 230°
2026-05-05 02:22 44.80629 -68.57080 39838 ft 453 kts 230°
2026-05-05 02:22 44.76366 -68.63620 39840 ft 453 kts 230°
2026-05-05 02:23 44.72092 -68.70159 39843 ft 453 kts 230°
2026-05-05 02:23 44.67843 -68.76647 39839 ft 454 kts 230°
2026-05-05 02:24 44.63555 -68.83178 39843 ft 454 kts 230°
2026-05-05 02:24 44.59267 -68.89695 39834 ft 454 kts 230°
2026-05-05 02:25 44.54977 -68.96198 39819 ft 454 kts 230°
2026-05-05 02:25 44.50678 -69.02700 39819 ft 453 kts 230°
2026-05-05 02:26 44.46389 -69.09173 39824 ft 453 kts 230°
2026-05-05 02:26 44.42102 -69.15625 39809 ft 453 kts 230°
2026-05-05 02:27 44.37809 -69.22075 39819 ft 452 kts 230°
2026-05-05 02:27 44.33543 -69.28467 39821 ft 452 kts 230°
2026-05-05 02:28 44.29245 -69.34893 39832 ft 451 kts 230°
2026-05-05 02:28 44.24956 -69.41291 39825 ft 451 kts 230°
2026-05-05 02:29 44.20690 -69.47640 39838 ft 451 kts 230°
2026-05-05 02:29 44.16402 -69.54008 39839 ft 450 kts 230°
2026-05-05 02:30 44.12107 -69.60371 39850 ft 450 kts 230°
2026-05-05 02:30 44.07813 -69.66718 39851 ft 450 kts 230°
2026-05-05 02:31 44.03525 -69.73042 39856 ft 450 kts 230°
2026-05-05 02:31 43.99228 -69.79367 39870 ft 450 kts 230°
2026-05-05 02:32 43.94955 -69.85640 39863 ft 450 kts 230°
2026-05-05 02:32 43.90653 -69.91942 39868 ft 450 kts 230°
2026-05-05 02:33 43.86349 -69.98233 39871 ft 450 kts 230°
2026-05-05 02:33 43.82039 -70.04519 39866 ft 450 kts 230°
2026-05-05 02:34 43.77714 -70.10812 39853 ft 450 kts 230°
2026-05-05 02:34 43.73417 -70.17051 39840 ft 450 kts 230°
2026-05-05 02:35 43.69083 -70.23330 39843 ft 451 kts 230°
2026-05-05 02:35 43.64748 -70.29595 39829 ft 451 kts 230°
2026-05-05 02:36 43.60404 -70.35860 39822 ft 451 kts 230°
2026-05-05 02:36 43.56051 -70.42125 39837 ft 452 kts 230°
2026-05-05 02:37 43.51701 -70.48372 39845 ft 452 kts 230°
2026-05-05 02:37 43.47330 -70.54636 39852 ft 452 kts 230°
2026-05-05 02:38 43.43001 -70.60834 39858 ft 452 kts 231°
2026-05-05 02:38 43.39013 -70.67475 39861 ft 449 kts 235°
2026-05-05 02:39 43.34758 -70.73793 39860 ft 454 kts 224°
2026-05-05 02:39 43.29579 -70.78856 39846 ft 460 kts 213°
2026-05-05 02:40 43.23967 -70.83123 39851 ft 460 kts 213°
2026-05-05 02:40 43.18392 -70.87343 39852 ft 460 kts 213°
2026-05-05 02:41 43.12796 -70.91622 39859 ft 460 kts 213°
2026-05-05 02:41 43.07210 -70.95905 39859 ft 460 kts 213°
2026-05-05 02:42 43.01614 -71.00186 39856 ft 460 kts 213°
2026-05-05 02:42 42.96022 -71.04455 39860 ft 459 kts 213°
2026-05-05 02:43 42.90560 -71.08845 39851 ft 456 kts 219°
2026-05-05 02:43 42.85574 -71.14125 39910 ft 453 kts 222°
2026-05-05 02:44 42.80633 -71.19451 39911 ft 452 kts 222°
2026-05-05 02:44 42.75679 -71.24740 39915 ft 452 kts 222°
2026-05-05 02:45 42.70746 -71.29976 39890 ft 452 kts 222°
2026-05-05 02:45 42.65785 -71.35225 39883 ft 451 kts 221°
2026-05-05 02:46 42.60804 -71.40484 39906 ft 451 kts 221°
2026-05-05 02:46 42.55880 -71.45674 39911 ft 450 kts 221°
2026-05-05 02:47 42.50924 -71.50888 39895 ft 450 kts 221°
2026-05-05 02:47 42.45983 -71.56074 39909 ft 449 kts 221°
2026-05-05 02:48 42.41042 -71.61250 39921 ft 449 kts 221°
2026-05-05 02:48 42.36094 -71.66423 39928 ft 449 kts 221°
2026-05-05 02:49 42.31150 -71.71582 39922 ft 448 kts 221°
2026-05-05 02:49 42.26213 -71.76723 39935 ft 448 kts 221°
2026-05-05 02:50 42.21310 -71.81820 39930 ft 447 kts 221°
2026-05-05 02:50 42.16364 -71.86950 39914 ft 447 kts 221°
2026-05-05 02:51 42.11109 -71.91504 39927 ft 452 kts 211°
2026-05-05 02:51 42.05481 -71.95314 39936 ft 453 kts 211°
2026-05-05 02:52 41.99888 -71.99102 39938 ft 453 kts 211°
2026-05-05 02:52 41.94271 -72.02934 39942 ft 452 kts 211°
2026-05-05 02:53 41.88659 -72.06770 39958 ft 452 kts 211°
2026-05-05 02:53 41.83039 -72.10606 39958 ft 453 kts 211°
2026-05-05 02:54 41.77459 -72.14406 39951 ft 452 kts 211°
2026-05-05 02:54 41.71846 -72.18220 39959 ft 451 kts 211°
2026-05-05 02:55 41.66246 -72.22018 39945 ft 451 kts 211°
2026-05-05 02:55 41.60645 -72.25810 39934 ft 451 kts 211°
2026-05-05 02:56 41.55045 -72.29593 39932 ft 450 kts 211°
2026-05-05 02:56 41.49449 -72.33367 39938 ft 451 kts 211°
2026-05-05 02:57 41.43874 -72.37119 39970 ft 451 kts 211°
2026-05-05 02:57 41.38260 -72.40891 39956 ft 451 kts 211°
2026-05-05 02:58 41.32645 -72.44656 39963 ft 452 kts 211°
2026-05-05 02:58 41.27070 -72.48506 39972 ft 449 kts 215°
2026-05-05 02:59 41.21937 -72.53174 39956 ft 446 kts 219°
2026-05-05 02:59 41.16896 -72.57894 39962 ft 446 kts 219°
2026-05-05 03:00 41.11800 -72.62618 39968 ft 446 kts 219°
2026-05-05 03:00 41.06691 -72.67325 39960 ft 447 kts 219°
2026-05-05 03:01 41.01582 -72.72023 39980 ft 447 kts 219°
2026-05-05 03:01 40.96477 -72.76711 39986 ft 447 kts 219°
2026-05-05 03:02 40.91375 -72.81417 39979 ft 446 kts 220°
2026-05-05 03:02 40.87218 -72.85449 39973 ft 446 kts 220°
2026-05-05 03:03 40.81442 -72.91131 39983 ft 445 kts 220°
2026-05-05 03:03 40.77264 -72.95214 39968 ft 445 kts 220°
2026-05-05 03:04 40.72298 -73.00039 39956 ft 446 kts 220°
2026-05-05 03:04 40.67293 -73.04883 39964 ft 445 kts 220°
2026-05-05 03:05 40.62303 -73.09706 39962 ft 444 kts 220°
2026-05-05 03:05 40.57323 -73.14510 39963 ft 444 kts 220°
2026-05-05 03:06 40.52362 -73.19287 39954 ft 444 kts 220°
2026-05-05 03:06 40.47384 -73.24071 39961 ft 444 kts 220°
2026-05-05 03:07 40.42399 -73.28853 39973 ft 444 kts 220°
2026-05-05 03:07 40.37407 -73.33634 39980 ft 444 kts 220°
2026-05-05 03:08 40.32415 -73.38406 39959 ft 444 kts 220°
2026-05-05 03:08 40.27422 -73.43172 39977 ft 444 kts 220°
2026-05-05 03:09 40.22453 -73.47898 39987 ft 444 kts 220°
2026-05-05 03:09 40.17441 -73.52645 39982 ft 445 kts 220°
2026-05-05 03:10 40.12430 -73.57384 39978 ft 445 kts 219°
2026-05-05 03:10 40.07408 -73.62127 39998 ft 445 kts 219°
2026-05-05 03:11 40.02400 -73.66851 39997 ft 445 kts 220°
2026-05-05 03:11 39.97391 -73.71566 39994 ft 445 kts 220°
2026-05-05 03:12 39.92379 -73.76294 39992 ft 445 kts 220°
2026-05-05 03:12 39.87369 -73.81038 39991 ft 444 kts 220°
2026-05-05 03:13 39.82359 -73.85775 39993 ft 444 kts 220°
2026-05-05 03:13 39.77351 -73.90498 39985 ft 444 kts 219°
2026-05-05 03:14 39.72347 -73.95207 40004 ft 444 kts 219°
2026-05-05 03:14 39.67365 -73.99888 39994 ft 444 kts 219°
2026-05-05 03:15 39.62350 -74.04590 39991 ft 444 kts 219°
2026-05-05 03:15 39.57339 -74.09283 39979 ft 444 kts 219°
2026-05-05 03:16 39.52319 -74.13973 39980 ft 444 kts 219°
2026-05-05 03:16 39.47310 -74.18585 39997 ft 444 kts 219°
2026-05-05 03:17 39.42248 -74.23199 39984 ft 444 kts 219°
2026-05-05 03:17 39.37203 -74.27796 39990 ft 444 kts 219°
2026-05-05 03:18 39.32136 -74.32413 39985 ft 444 kts 219°
2026-05-05 03:18 39.27088 -74.37006 39975 ft 444 kts 219°
2026-05-05 03:19 39.19530 -74.43869 39968 ft 444 kts 219°
2026-05-05 03:19 39.14459 -74.48463 39984 ft 444 kts 219°
2026-05-05 03:20 39.09429 -74.53012 39981 ft 444 kts 219°
2026-05-05 03:20 39.04361 -74.57587 39991 ft 444 kts 219°
2026-05-05 03:21 38.99300 -74.62147 39979 ft 444 kts 218°
2026-05-05 03:21 38.94236 -74.66702 39976 ft 444 kts 218°
2026-05-05 03:22 38.89170 -74.71250 39987 ft 444 kts 218°
2026-05-05 03:22 38.84137 -74.75762 39985 ft 444 kts 218°
2026-05-05 03:23 38.79063 -74.80302 39967 ft 445 kts 218°
2026-05-05 03:23 38.73983 -74.84839 39982 ft 445 kts 218°
2026-05-05 03:24 38.68898 -74.89372 39989 ft 445 kts 218°
2026-05-05 03:24 38.63807 -74.93904 39994 ft 446 kts 218°
2026-05-05 03:25 38.58741 -74.98404 39987 ft 446 kts 218°
2026-05-05 03:25 38.53629 -75.02938 39997 ft 446 kts 218°
2026-05-05 03:26 38.48521 -75.07460 40001 ft 446 kts 218°
2026-05-05 03:26 38.43415 -75.11974 39997 ft 446 kts 218°
2026-05-05 03:27 38.38310 -75.16477 39984 ft 446 kts 218°
2026-05-05 03:27 38.33231 -75.20951 39997 ft 445 kts 218°
2026-05-05 03:28 38.28139 -75.25430 39998 ft 445 kts 218°
2026-05-05 03:28 38.23021 -75.29870 39999 ft 445 kts 217°
2026-05-05 03:29 38.17797 -75.34124 39990 ft 445 kts 217°
2026-05-05 03:29 38.12602 -75.38334 39991 ft 445 kts 217°
2026-05-05 03:30 38.07393 -75.42588 40002 ft 445 kts 217°
2026-05-05 03:30 38.02218 -75.46906 40009 ft 444 kts 218°
2026-05-05 03:31 37.97134 -75.51365 39992 ft 444 kts 219°
2026-05-05 03:31 37.92043 -75.55812 40011 ft 444 kts 218°
2026-05-05 03:32 37.86966 -75.60208 40009 ft 445 kts 218°
2026-05-05 03:32 37.81595 -75.64193 40006 ft 451 kts 208°
2026-05-05 03:33 37.75849 -75.67417 40006 ft 452 kts 208°
2026-05-05 03:33 37.70101 -75.70641 40019 ft 452 kts 208°
2026-05-05 03:34 37.64354 -75.73892 40020 ft 452 kts 209°
2026-05-05 03:34 37.58651 -75.77128 40019 ft 453 kts 209°
2026-05-05 03:35 37.52898 -75.80388 40025 ft 452 kts 208°
2026-05-05 03:35 37.47154 -75.83637 40017 ft 452 kts 208°
2026-05-05 03:36 37.41420 -75.86873 40021 ft 451 kts 208°
2026-05-05 03:36 37.35689 -75.90103 40022 ft 450 kts 208°
2026-05-05 03:37 37.29968 -75.93321 40026 ft 450 kts 209°
2026-05-05 03:37 37.24295 -75.96509 40033 ft 449 kts 209°
2026-05-05 03:38 37.18584 -75.99713 40032 ft 450 kts 209°
2026-05-05 03:38 37.12869 -76.02914 40033 ft 450 kts 210°
2026-05-05 03:39 37.07349 -76.06545 40045 ft 446 kts 214°
2026-05-05 03:39 37.01916 -76.10333 40040 ft 447 kts 214°
2026-05-05 03:40 36.96460 -76.14120 40036 ft 448 kts 214°
2026-05-05 03:40 36.90997 -76.17889 40040 ft 449 kts 213°
2026-05-05 03:41 36.85523 -76.21650 40036 ft 449 kts 214°
2026-05-05 03:41 36.80092 -76.25376 40037 ft 449 kts 214°
2026-05-05 03:42 36.74618 -76.29125 40065 ft 448 kts 214°
2026-05-05 03:42 36.69141 -76.32871 40064 ft 448 kts 214°
2026-05-05 03:43 36.63674 -76.36604 40057 ft 447 kts 213°
2026-05-05 03:43 36.58242 -76.40307 40063 ft 447 kts 213°
2026-05-05 03:44 36.52783 -76.44023 40055 ft 447 kts 213°
2026-05-05 03:44 36.47332 -76.47727 40056 ft 446 kts 213°
2026-05-05 03:45 36.41882 -76.51425 40057 ft 445 kts 213°
2026-05-05 03:45 36.36439 -76.55112 40060 ft 445 kts 213°
2026-05-05 03:46 36.30998 -76.58791 40070 ft 445 kts 213°
2026-05-05 03:46 36.25584 -76.62447 40078 ft 445 kts 213°
2026-05-05 03:47 36.20135 -76.66120 40071 ft 445 kts 213°
2026-05-05 03:47 36.14690 -76.69785 40082 ft 445 kts 213°
2026-05-05 03:48 36.09286 -76.73417 40091 ft 444 kts 213°
2026-05-05 03:48 36.03843 -76.77069 40083 ft 444 kts 213°
2026-05-05 03:49 35.98407 -76.80711 40084 ft 444 kts 213°
2026-05-05 03:49 35.92977 -76.84344 40081 ft 443 kts 213°
2026-05-05 03:50 35.87547 -76.87878 40079 ft 444 kts 211°
2026-05-05 03:50 35.81998 -76.91268 40091 ft 445 kts 211°
2026-05-05 03:51 35.76441 -76.94642 40079 ft 445 kts 211°
2026-05-05 03:51 35.70881 -76.98041 40097 ft 445 kts 211°
2026-05-05 03:52 35.65355 -77.01429 40102 ft 445 kts 211°
2026-05-05 03:52 35.60708 -77.04276 40102 ft 446 kts 211°
2026-05-05 03:53 35.55180 -77.07658 40093 ft 446 kts 211°
2026-05-05 03:53 35.49620 -77.11054 40087 ft 445 kts 211°
2026-05-05 03:54 35.44069 -77.14439 40101 ft 445 kts 211°
2026-05-05 03:54 35.38552 -77.17798 40100 ft 445 kts 211°
2026-05-05 03:55 35.33010 -77.21167 40102 ft 445 kts 211°
2026-05-05 03:55 35.27467 -77.24532 40102 ft 445 kts 211°
2026-05-05 03:56 35.21917 -77.27895 40107 ft 445 kts 211°
2026-05-05 03:56 35.16364 -77.31256 40109 ft 445 kts 211°
2026-05-05 03:57 35.10808 -77.34612 40116 ft 445 kts 211°
2026-05-05 03:57 35.05277 -77.37949 40110 ft 445 kts 211°
2026-05-05 03:58 34.99716 -77.41298 40124 ft 445 kts 211°
2026-05-05 03:58 34.94160 -77.44640 40126 ft 445 kts 211°
2026-05-05 03:59 34.88627 -77.47963 40129 ft 445 kts 211°
2026-05-05 03:59 34.83080 -77.51289 40116 ft 444 kts 211°
2026-05-05 04:00 34.77532 -77.54611 40125 ft 443 kts 211°
2026-05-05 04:00 34.71987 -77.57926 40124 ft 443 kts 211°
2026-05-05 04:01 34.66445 -77.61236 40124 ft 443 kts 211°
2026-05-05 04:01 34.60937 -77.64520 40091 ft 444 kts 211°
2026-05-05 04:02 34.55237 -77.67471 40115 ft 449 kts 203°
2026-05-05 04:02 34.49115 -77.69271 40120 ft 454 kts 197°
2026-05-05 04:03 34.42910 -77.70801 40118 ft 455 kts 197°
2026-05-05 04:03 34.36697 -77.72354 40093 ft 455 kts 197°
2026-05-05 04:04 34.30540 -77.73915 40107 ft 454 kts 197°
2026-05-05 04:04 34.24344 -77.75491 40117 ft 454 kts 197°
2026-05-05 04:05 34.18201 -77.77052 40117 ft 454 kts 197°
2026-05-05 04:05 34.12018 -77.78619 40093 ft 453 kts 197°
2026-05-05 04:06 34.05851 -77.80180 40113 ft 453 kts 197°
2026-05-05 04:06 33.99694 -77.81736 40120 ft 452 kts 197°
2026-05-05 04:07 33.93541 -77.83289 40120 ft 452 kts 197°
2026-05-05 04:07 33.87384 -77.84841 40121 ft 452 kts 197°
2026-05-05 04:08 33.81233 -77.86388 40115 ft 451 kts 197°
2026-05-05 04:08 33.75160 -77.88219 40121 ft 448 kts 201°
2026-05-05 04:09 33.69196 -77.90282 40125 ft 448 kts 201°
2026-05-05 04:09 33.63191 -77.92342 40126 ft 449 kts 201°
2026-05-05 04:10 33.57177 -77.94382 40121 ft 448 kts 201°
2026-05-05 04:10 33.51171 -77.96415 40124 ft 448 kts 201°
2026-05-05 04:11 33.45160 -77.98447 40126 ft 449 kts 201°
2026-05-05 04:11 33.39178 -78.00467 40125 ft 449 kts 201°
2026-05-05 04:12 33.33148 -78.02500 40114 ft 449 kts 201°
2026-05-05 04:12 33.27130 -78.04528 40127 ft 450 kts 201°
2026-05-05 04:13 33.21105 -78.06554 40130 ft 450 kts 201°
2026-05-05 04:13 33.15067 -78.08582 40131 ft 450 kts 201°
2026-05-05 04:14 33.09034 -78.10605 40116 ft 450 kts 202°
2026-05-05 04:14 33.03048 -78.12609 40125 ft 449 kts 202°
2026-05-05 04:15 32.97026 -78.14624 40127 ft 449 kts 202°
2026-05-05 04:15 32.91003 -78.16636 40128 ft 449 kts 202°
2026-05-05 04:16 32.84987 -78.18642 40130 ft 449 kts 202°
2026-05-05 04:16 32.78973 -78.20646 40129 ft 449 kts 202°
2026-05-05 04:17 32.72966 -78.22644 40136 ft 448 kts 202°
2026-05-05 04:17 32.66993 -78.24619 40133 ft 448 kts 201°
2026-05-05 04:18 32.60967 -78.26603 40129 ft 448 kts 201°
2026-05-05 04:18 32.54943 -78.28585 40123 ft 448 kts 202°
2026-05-05 04:19 32.48973 -78.30549 40129 ft 448 kts 202°
2026-05-05 04:19 32.42963 -78.32524 40133 ft 448 kts 202°
2026-05-05 04:20 32.36959 -78.34493 40136 ft 448 kts 202°
2026-05-05 04:20 32.30949 -78.36462 40123 ft 447 kts 202°
2026-05-05 04:21 32.24958 -78.38432 40128 ft 447 kts 202°
2026-05-05 04:21 32.18960 -78.40403 40128 ft 447 kts 202°
2026-05-05 04:22 32.12987 -78.42362 40134 ft 447 kts 202°
2026-05-05 04:22 32.06984 -78.44327 40103 ft 447 kts 203°
2026-05-05 04:23 32.00982 -78.46289 40124 ft 446 kts 203°
2026-05-05 04:23 31.94997 -78.48243 40131 ft 446 kts 203°
2026-05-05 04:24 31.89018 -78.50193 40130 ft 446 kts 203°
2026-05-05 04:25 31.80040 -78.53115 40122 ft 445 kts 203°
2026-05-05 04:25 31.74108 -78.55043 40130 ft 445 kts 203°
2026-05-05 04:26 31.68147 -78.56978 40131 ft 444 kts 203°
2026-05-05 04:26 31.62177 -78.58914 40131 ft 444 kts 203°
2026-05-05 04:27 31.56214 -78.60845 40087 ft 444 kts 203°
2026-05-05 04:27 31.50280 -78.62809 40126 ft 442 kts 204°
2026-05-05 04:28 31.44385 -78.64846 40132 ft 442 kts 204°
2026-05-05 04:28 31.38481 -78.66887 40132 ft 442 kts 204°
2026-05-05 04:29 31.32622 -78.68900 40126 ft 442 kts 204°
2026-05-05 04:29 31.26704 -78.70924 40120 ft 443 kts 204°
2026-05-05 04:30 31.20778 -78.72947 40124 ft 444 kts 204°
2026-05-05 04:30 31.14823 -78.74978 40133 ft 446 kts 204°
2026-05-05 04:31 31.08844 -78.77014 40131 ft 447 kts 204°
2026-05-05 04:31 31.02895 -78.79037 40088 ft 448 kts 204°
2026-05-05 04:32 30.96911 -78.81069 40122 ft 448 kts 204°
2026-05-05 04:32 30.90928 -78.83098 40128 ft 448 kts 204°
2026-05-05 04:33 30.84940 -78.85127 40126 ft 447 kts 204°
2026-05-05 04:33 30.79007 -78.87134 40126 ft 447 kts 204°
2026-05-05 04:34 30.73029 -78.89154 40105 ft 445 kts 204°
2026-05-05 04:34 30.67077 -78.91162 40116 ft 445 kts 204°
2026-05-05 04:35 30.61122 -78.93170 40123 ft 445 kts 204°
2026-05-05 04:35 30.55180 -78.95171 40128 ft 445 kts 204°
2026-05-05 04:36 30.49230 -78.97172 40138 ft 445 kts 204°
2026-05-05 04:36 30.43300 -78.99165 40114 ft 447 kts 205°
2026-05-05 04:37 30.37455 -79.01557 40129 ft 445 kts 209°
2026-05-05 04:37 30.31647 -79.04124 40129 ft 448 kts 209°
2026-05-05 04:38 30.25807 -79.06693 40122 ft 451 kts 209°
2026-05-05 04:38 30.19915 -79.09266 40132 ft 454 kts 208°
2026-05-05 04:39 30.14016 -79.11832 40116 ft 455 kts 208°
2026-05-05 04:39 30.08071 -79.14412 40116 ft 456 kts 208°
2026-05-05 04:40 30.02126 -79.16989 40109 ft 456 kts 208°
2026-05-05 04:40 29.97186 -79.19129 40113 ft 455 kts 208°
2026-05-05 04:41 29.91263 -79.21691 40111 ft 454 kts 208°
2026-05-05 04:41 29.85359 -79.24243 40109 ft 453 kts 208°
2026-05-05 04:42 29.79457 -79.26792 40113 ft 452 kts 208°
2026-05-05 04:42 29.73597 -79.29319 40110 ft 452 kts 208°
2026-05-05 04:43 29.67704 -79.31857 40067 ft 452 kts 208°
2026-05-05 04:43 29.61827 -79.34384 40105 ft 451 kts 208°
2026-05-05 04:44 29.55949 -79.36910 40107 ft 451 kts 208°
2026-05-05 04:44 29.50064 -79.39436 40107 ft 451 kts 208°
2026-05-05 04:45 29.44212 -79.41944 40103 ft 452 kts 208°
2026-05-05 04:45 29.38309 -79.44470 40083 ft 453 kts 209°
2026-05-05 04:46 29.32388 -79.47002 40100 ft 454 kts 209°
2026-05-05 04:46 29.26449 -79.49538 40104 ft 456 kts 208°
2026-05-05 04:47 29.20489 -79.52079 40100 ft 458 kts 208°
2026-05-05 04:47 29.14508 -79.54626 40101 ft 459 kts 208°
2026-05-05 04:48 29.08557 -79.57157 40091 ft 458 kts 209°
2026-05-05 04:48 29.02588 -79.59691 40088 ft 457 kts 209°
2026-05-05 04:49 28.96625 -79.62219 40096 ft 456 kts 209°
2026-05-05 04:49 28.90668 -79.64741 40091 ft 456 kts 209°
2026-05-05 04:50 28.84716 -79.67258 40054 ft 455 kts 210°
2026-05-05 04:50 28.78832 -79.69742 40087 ft 453 kts 210°
2026-05-05 04:51 28.72915 -79.72236 40079 ft 453 kts 210°
2026-05-05 04:51 28.66998 -79.74727 40086 ft 452 kts 210°
2026-05-05 04:52 28.61091 -79.77211 40077 ft 452 kts 210°
2026-05-05 04:52 28.55232 -79.79673 40041 ft 451 kts 211°
2026-05-05 04:53 28.49340 -79.82144 40071 ft 451 kts 211°
2026-05-05 04:53 28.43442 -79.84618 40078 ft 452 kts 211°
2026-05-05 04:54 28.37530 -79.87100 40079 ft 453 kts 211°
2026-05-05 04:54 28.31633 -79.89578 40076 ft 454 kts 211°
2026-05-05 04:55 28.25699 -79.92073 40078 ft 454 kts 211°
2026-05-05 04:55 28.19756 -79.94573 40075 ft 455 kts 211°
2026-05-05 04:56 28.13803 -79.97076 40072 ft 456 kts 211°
2026-05-05 04:56 28.07895 -79.99560 40069 ft 456 kts 211°
2026-05-05 04:57 28.01948 -80.02059 40068 ft 456 kts 211°
2026-05-05 04:57 27.95994 -80.04557 40058 ft 454 kts 211°
2026-05-05 04:58 27.90068 -80.07038 40059 ft 454 kts 211°
2026-05-05 04:58 27.84135 -80.09521 40064 ft 455 kts 211°
2026-05-05 04:59 27.78200 -80.12005 40061 ft 455 kts 211°
2026-05-05 04:59 27.72250 -80.14494 40063 ft 455 kts 211°
2026-05-05 05:00 27.66353 -80.16959 40040 ft 455 kts 211°
2026-05-05 05:00 27.60403 -80.19447 40053 ft 456 kts 211°
2026-05-05 05:01 27.54427 -80.21950 40062 ft 458 kts 211°
2026-05-05 05:01 27.48440 -80.24461 40058 ft 460 kts 211°
2026-05-05 05:02 27.42463 -80.26972 40053 ft 461 kts 211°
2026-05-05 05:02 27.37020 -80.29259 40050 ft 462 kts 211°
2026-05-05 05:03 27.32133 -80.31308 40038 ft 454 kts 211°
2026-05-05 05:03 27.26226 -80.33759 40057 ft 455 kts 211°
2026-05-05 05:04 27.20229 -80.36269 40053 ft 462 kts 211°
2026-05-05 05:04 27.14196 -80.38804 39996 ft 464 kts 211°
2026-05-05 05:05 27.08150 -80.41344 40037 ft 463 kts 211°
2026-05-05 05:05 27.02105 -80.43883 40040 ft 463 kts 211°
2026-05-05 05:06 26.96106 -80.46400 40041 ft 463 kts 211°
2026-05-05 05:06 26.90067 -80.48931 40037 ft 463 kts 211°
2026-05-05 05:07 26.84042 -80.51454 39995 ft 462 kts 211°
2026-05-05 05:07 26.78018 -80.53971 40009 ft 461 kts 211°
2026-05-05 05:08 26.72004 -80.56484 40031 ft 462 kts 211°
2026-05-05 05:08 26.65967 -80.59010 40037 ft 464 kts 211°
2026-05-05 05:09 26.59902 -80.61552 40036 ft 466 kts 211°
2026-05-05 05:09 26.53868 -80.64085 40016 ft 467 kts 211°
2026-05-05 05:10 26.47780 -80.66642 40026 ft 468 kts 211°
2026-05-05 05:10 26.41684 -80.69204 40030 ft 468 kts 211°
2026-05-05 05:11 26.35794 -80.71889 39995 ft 449 kts 224°
2026-05-05 05:11 26.33540 -80.74100 40031 ft 420 kts 243°
2026-05-05 05:11 26.32158 -80.76867 40030 ft 400 kts 258°
2026-05-05 05:12 26.31328 -80.82837 39979 ft 387 kts 276°
2026-05-05 05:12 26.31631 -80.85815 39619 ft 386 kts 284°
2026-05-05 05:12 26.32411 -80.88645 39259 ft 380 kts 294°
2026-05-05 05:12 26.33722 -80.91181 38881 ft 376 kts 306°
2026-05-05 05:13 26.35563 -80.93240 38501 ft 377 kts 319°
2026-05-05 05:13 26.37776 -80.94760 38107 ft 380 kts 327°
2026-05-05 05:13 26.40231 -80.95912 37703 ft 384 kts 335°
2026-05-05 05:13 26.42892 -80.96408 37287 ft 395 kts 349°
2026-05-05 05:14 26.45637 -80.96473 36935 ft 393 kts 349°
2026-05-05 05:14 26.48370 -80.96510 36560 ft 392 kts 350°
2026-05-05 05:14 26.51093 -80.96547 36193 ft 390 kts 350°
2026-05-05 05:14 26.53802 -80.96593 35821 ft 388 kts 349°
2026-05-05 05:15 26.56507 -80.96648 35462 ft 386 kts 349°
2026-05-05 05:15 26.59154 -80.96711 35148 ft 384 kts 349°
2026-05-05 05:15 26.61829 -80.96779 34793 ft 382 kts 349°
2026-05-05 05:15 26.64482 -80.96851 34449 ft 381 kts 349°
2026-05-05 05:16 26.67121 -80.96925 34103 ft 378 kts 349°
2026-05-05 05:16 26.69751 -80.96999 33721 ft 376 kts 349°
2026-05-05 05:16 26.72364 -80.97073 33334 ft 374 kts 349°
2026-05-05 05:16 26.74961 -80.97147 32948 ft 372 kts 349°
2026-05-05 05:17 26.77547 -80.97221 32574 ft 370 kts 350°
2026-05-05 05:17 26.80124 -80.97294 32189 ft 368 kts 350°
2026-05-05 05:17 26.82678 -80.97367 31830 ft 366 kts 350°
2026-05-05 05:17 26.85223 -80.97440 31472 ft 365 kts 350°
2026-05-05 05:18 26.87727 -80.97511 31146 ft 362 kts 350°
2026-05-05 05:18 26.90229 -80.97581 30947 ft 357 kts 350°
2026-05-05 05:18 26.92695 -80.97650 30711 ft 353 kts 350°
2026-05-05 05:18 26.95139 -80.97719 30477 ft 350 kts 350°
2026-05-05 05:19 26.97585 -80.97791 30248 ft 352 kts 350°
2026-05-05 05:19 27.00047 -80.97866 30024 ft 356 kts 350°
2026-05-05 05:19 27.02539 -80.97941 29758 ft 357 kts 350°
2026-05-05 05:19 27.05029 -80.98012 29482 ft 357 kts 350°
2026-05-05 05:20 27.07512 -80.98083 29216 ft 356 kts 350°
2026-05-05 05:20 27.09964 -80.98152 28954 ft 356 kts 350°
2026-05-05 05:20 27.12538 -80.98234 28727 ft 376 kts 350°
2026-05-05 05:20 27.15192 -80.98323 28504 ft 394 kts 351°
2026-05-05 05:21 27.17947 -80.98406 28256 ft 397 kts 351°
2026-05-05 05:21 27.20715 -80.98481 28025 ft 397 kts 351°
2026-05-05 05:21 27.23473 -80.98553 27765 ft 396 kts 351°
2026-05-05 05:21 27.26233 -80.98626 27513 ft 396 kts 351°
2026-05-05 05:22 27.28978 -80.98701 27264 ft 395 kts 351°
2026-05-05 05:22 27.31731 -80.98777 27006 ft 394 kts 351°
2026-05-05 05:22 27.34475 -80.98855 26758 ft 394 kts 351°
2026-05-05 05:22 27.37217 -80.98933 26520 ft 394 kts 351°
2026-05-05 05:23 27.39956 -80.99012 26286 ft 393 kts 351°
2026-05-05 05:23 27.42695 -80.99091 26053 ft 393 kts 351°
2026-05-05 05:23 27.45421 -80.99170 25817 ft 393 kts 351°
2026-05-05 05:23 27.48164 -80.99249 25582 ft 393 kts 351°
2026-05-05 05:24 27.50896 -80.99328 25349 ft 393 kts 351°
2026-05-05 05:24 27.53634 -80.99408 25116 ft 393 kts 351°
2026-05-05 05:24 27.56342 -80.99486 24885 ft 393 kts 351°
2026-05-05 05:24 27.59079 -80.99565 24662 ft 394 kts 351°
2026-05-05 05:25 27.61825 -80.99645 24432 ft 394 kts 351°
2026-05-05 05:25 27.64564 -80.99724 24209 ft 394 kts 351°
2026-05-05 05:25 27.67304 -80.99803 23985 ft 394 kts 351°
2026-05-05 05:25 27.70049 -80.99882 23763 ft 394 kts 351°
2026-05-05 05:26 27.72792 -80.99962 23531 ft 394 kts 351°
2026-05-05 05:26 27.75532 -81.00042 23272 ft 394 kts 351°
2026-05-05 05:26 27.78268 -81.00121 23028 ft 393 kts 351°
2026-05-05 05:26 27.81001 -81.00200 22762 ft 392 kts 351°
2026-05-05 05:27 27.82813 -81.00253 22593 ft 391 kts 352°
2026-05-05 05:27 27.85532 -81.00331 22331 ft 390 kts 352°
2026-05-05 05:27 27.90943 -81.00487 21824 ft 387 kts 352°
2026-05-05 05:28 27.93626 -81.00565 21572 ft 385 kts 352°
2026-05-05 05:28 27.96306 -81.00642 21323 ft 383 kts 352°
2026-05-05 05:28 27.98964 -81.00720 21070 ft 382 kts 352°
2026-05-05 05:28 28.01625 -81.00797 20838 ft 381 kts 352°
2026-05-05 05:29 28.04233 -81.00874 20590 ft 379 kts 352°
2026-05-05 05:29 28.06905 -81.00952 20344 ft 378 kts 352°
2026-05-05 05:29 28.09530 -81.01041 20126 ft 372 kts 350°
2026-05-05 05:29 28.11901 -81.01737 19949 ft 346 kts 326°
2026-05-05 05:30 28.13702 -81.03360 19706 ft 317 kts 308°
2026-05-05 05:30 28.15003 -81.05271 19222 ft 297 kts 300°
2026-05-05 05:30 28.16076 -81.07227 18753 ft 290 kts 297°
2026-05-05 05:30 28.17111 -81.09237 18334 ft 300 kts 297°
2026-05-05 05:31 28.18174 -81.11320 17571 ft 311 kts 297°
2026-05-05 05:31 28.19288 -81.13493 16558 ft 327 kts 298°
2026-05-05 05:31 28.20468 -81.15776 15603 ft 342 kts 298°
2026-05-05 05:31 28.21686 -81.18120 14677 ft 355 kts 298°
2026-05-05 05:32 28.22967 -81.20573 13746 ft 366 kts 299°
2026-05-05 05:32 28.24261 -81.23090 12724 ft 369 kts 296°
2026-05-05 05:32 28.25267 -81.25655 11699 ft 345 kts 288°
2026-05-05 05:32 28.26113 -81.28131 10424 ft 329 kts 295°
2026-05-05 05:33 28.27376 -81.30326 6756 ft 373 kts 317°
2026-05-05 05:33 28.29681 -81.31632 4447 ft 377 kts 352°
2026-05-05 05:33 28.32205 -81.31345 2686 ft 360 kts 22°
2026-05-05 05:33 28.34364 -81.30264 1661 ft 315 kts 26°
2026-05-05 05:34 28.36295 -81.29606 972 ft 269 kts 11°
2026-05-05 05:34 28.38025 -81.29517 595 ft 232 kts 359°
2026-05-05 05:34 28.39551 -81.29552 382 ft 202 kts
2026-05-05 05:34 28.40835 -81.29563 139 ft 172 kts
2026-05-05 05:35 28.41915 -81.29568 108 ft 138 kts 358°
2026-05-05 05:35 28.42721 -81.29579 107 ft 93 kts 359°
2026-05-05 05:35 28.43136 -81.29582 110 ft 50 kts 360°
2026-05-05 05:35 28.43372 -81.29585 109 ft 30 kts 358°
2026-05-05 05:36 28.43435 -81.29685 109 ft 15 kts 245°
2026-05-05 05:36 28.43340 -81.29712 109 ft 15 kts 172°
2026-05-05 05:36 28.43235 -81.29709 109 ft 15 kts 180°
2026-05-05 05:36 28.43125 -81.29709 108 ft 16 kts 179°
2026-05-05 05:37 28.43013 -81.29707 109 ft 16 kts 179°
2026-05-05 05:37 28.42919 -81.29727 109 ft 13 kts 226°
2026-05-05 05:37 28.43841 -81.33025 106 ft 0 kts 358°
2026-05-05 05:37 28.43269 -81.31288 106 ft 386 kts 358°
2026-05-05 05:38 28.43440 -81.30303 105 ft 0 kts 358°
2026-05-05 05:38 28.43449 -81.30302 105 ft 3 kts
2026-05-05 05:38 28.43342 -81.31622 106 ft 1 kts 51°
2026-05-05 05:39 28.43343 -81.31620 106 ft 0 kts 51°